FW1385 Weather Reports


Display with metric or nautical units.
time (UTC)temp
F
wind
direction
speed
MPH
gust
MPH
rain 1hr
in
rain 24hr
in
rain mn
in
humidity
%
barometer
mb
20260905214403 88 0 0.0 0.0 0.00 0.03 0.03 64 1009.4
20260905214317 88 0 0.0 0.0 0.00 0.03 0.03 66 1009.4
20260905214303 88 0 0.0 0.0 0.00 0.03 0.03 65 1009.4
20260905214203 88 0 0.0 0.0 0.00 0.03 0.03 63 1009.4
20260905214003 88 0 0.0 0.0 0.00 0.03 0.03 66 1009.4
20260905213904 88 0 0.0 0.0 0.00 0.03 0.03 66 1009.3
20260905213818 87 0 0.0 0.0 0.00 0.03 0.03 66 1009.3
20260905213803 87 0 0.0 0.0 0.00 0.03 0.03 66 1009.4
20260905213703 87 0 0.0 0.0 0.00 0.03 0.03 64 1009.4
20260905213619 87 0 0.0 0.0 0.00 0.03 0.03 65 1009.3
20260905213503 87 0 0.0 0.0 0.00 0.03 0.03 65 1009.3
20260905213418 87 353 0.0 1.0 0.00 0.03 0.03 64 1009.3
20260905213304 87 353 0.0 2.0 0.00 0.03 0.03 64 1009.4
20260905213103 87 353 0.0 2.0 0.00 0.03 0.03 67 1009.5
20260905213003 87 353 0.0 2.0 0.00 0.03 0.03 65 1009.5
20260905212903 87 353 1.0 2.0 0.00 0.03 0.03 68 1009.5
20260905212803 87 353 1.0 3.0 0.00 0.03 0.03 68 1009.6
20260905212704 87 353 1.0 3.0 0.00 0.03 0.03 65 1009.6
20260905212603 87 353 1.0 3.0 0.00 0.03 0.03 67 1009.5
20260905212504 87 352 1.0 3.0 0.00 0.03 0.03 67 1009.6
20260905212403 87 352 1.0 3.0 0.00 0.03 0.03 66 1009.6
20260905212306 87 352 1.0 3.0 0.00 0.03 0.03 70 1009.6
20260905212203 87 352 2.0 3.0 0.00 0.03 0.03 70 1009.6
20260905212019 87 353 2.0 3.0 0.00 0.03 0.03 66 1009.6
20260905212003 87 354 2.0 3.0 0.00 0.03 0.03 66 1009.6
20260905211917 87 355 2.0 3.0 0.00 0.03 0.03 66 1009.6
20260905211903 87 356 2.0 3.0 0.00 0.03 0.03 66 1009.6
20260905211818 88 358 2.0 3.0 0.00 0.03 0.03 67 1009.7
20260905211503 88 347 2.0 3.0 0.00 0.03 0.03 67 1009.7
20260905211403 88 346 2.0 3.0 0.00 0.03 0.03 66 1009.7
20260905211303 88 345 1.0 3.0 0.00 0.03 0.03 67 1009.7
20260905211217 88 344 1.0 3.0 0.00 0.03 0.03 67 1009.7
20260905211203 88 343 1.0 3.0 0.00 0.03 0.03 67 1009.5
20260905211118 88 341 1.0 3.0 0.00 0.03 0.03 67 1009.5
20260905211104 88 340 1.0 3.0 0.00 0.03 0.03 67 1009.5
20260905210804 87 226 0.0 2.0 0.00 0.03 0.03 71 1009.6
20260905210703 87 226 0.0 2.0 0.00 0.03 0.03 73 1009.6
20260905210604 87 226 0.0 2.0 0.00 0.03 0.03 70 1009.6
20260905210503 86 226 0.0 1.0 0.00 0.03 0.03 70 1009.7
20260905210404 86 226 0.0 1.0 0.00 0.03 0.03 71 1009.7
20260905210303 86 226 0.0 1.0 0.00 0.03 0.03 78 1009.7
20260905210203 85 226 0.0 1.0 0.01 0.03 0.03 80 1009.6
20260905210104 85 226 0.0 1.0 0.01 0.03 0.03 78 1009.6
20260905210003 85 226 0.0 2.0 0.01 0.03 0.03 79 1009.6
20260905205903 85 226 0.0 2.0 0.01 0.03 0.03 81 1009.6
20260905205803 85 226 0.0 2.0 0.01 0.03 0.03 79 1009.6
20260905205703 85 226 0.0 2.0 0.01 0.03 0.03 79 1009.7
20260905205619 85 226 1.0 2.0 0.01 0.03 0.03 82 1009.7
20260905205603 85 226 1.0 2.0 0.01 0.03 0.03 81 1009.7
20260905205503 85 226 1.0 2.0 0.01 0.03 0.03 79 1009.7
20260905205418 85 226 1.0 2.0 0.01 0.03 0.03 80 1009.7
20260905205306 85 225 1.0 2.0 0.02 0.03 0.03 80 1009.6
20260905205103 84 200 1.0 3.0 0.03 0.03 0.03 77 1009.6
20260905205018 85 191 1.0 3.0 0.03 0.03 0.03 77 1009.6
20260905205003 85 189 1.0 3.0 0.03 0.03 0.03 78 1009.6
20260905204903 85 174 1.0 3.0 0.03 0.03 0.03 79 1009.6
20260905204718 85 101 1.0 4.0 0.03 0.03 0.03 80 1009.7
20260905204703 85 96 1.0 4.0 0.03 0.03 0.03 80 1009.7
20260905204603 85 79 1.0 4.0 0.03 0.03 0.03 72 1009.7
20260905204517 85 62 2.0 4.0 0.03 0.03 0.03 72 1009.7
20260905204418 85 45 2.0 5.0 0.03 0.03 0.03 76 1009.9
20260905204403 84 43 2.0 5.0 0.03 0.03 0.03 79 1009.9
20260905204103 84 41 2.0 5.0 0.03 0.03 0.03 82 1009.9
20260905204003 83 41 1.0 5.0 0.03 0.03 0.03 80 1010.1
20260905203904 83 43 1.0 5.0 0.03 0.03 0.03 85 1010.2
20260905203803 82 45 1.0 5.0 0.03 0.03 0.03 83 1010.2
20260905203703 82 46 1.0 5.0 0.03 0.03 0.03 86 1010.3
20260905203603 82 48 1.0 5.0 0.03 0.03 0.03 86 1010.3
20260905203503 82 70 1.0 5.0 0.03 0.03 0.03 88 1010.3
20260905203404 82 122 0.0 3.0 0.03 0.03 0.03 89 1010.0
20260905203304 81 132 0.0 2.0 0.03 0.03 0.03 89 1010.0
20260905203203 81 132 0.0 2.0 0.03 0.03 0.03 90 1010.0
20260905203103 81 132 0.0 2.0 0.03 0.03 0.03 89 1009.8
20260905203003 81 132 0.0 2.0 0.03 0.03 0.03 89 1009.8
20260905202903 80 132 0.0 2.0 0.03 0.03 0.03 88 1009.7
20260905202803 80 132 1.0 2.0 0.03 0.03 0.03 88 1009.7
20260905202703 80 132 1.0 2.0 0.03 0.03 0.03 89 1009.7
20260905202503 80 132 1.0 2.0 0.03 0.03 0.03 87 1009.8
20260905202403 80 132 1.0 2.0 0.03 0.03 0.03 87 1009.8
20260905202306 80 132 1.0 2.0 0.03 0.03 0.03 88 1009.9
20260905202203 80 132 1.0 2.0 0.03 0.03 0.03 88 1009.9
20260905202104 80 132 1.0 2.0 0.03 0.03 0.03 88 1010.0
20260905202003 80 132 1.0 2.0 0.03 0.03 0.03 87 1010.0
20260905201903 80 132 1.0 3.0 0.03 0.03 0.03 87 1010.1
20260905201803 80 132 1.0 3.0 0.03 0.03 0.03 90 1010.3
20260905201703 80 132 1.0 3.0 0.03 0.03 0.03 90 1010.3
20260905201604 80 132 1.0 3.0 0.03 0.03 0.03 89 1010.4
20260905201503 80 132 1.0 3.0 0.03 0.03 0.03 89 1010.4
20260905201404 80 132 1.0 3.0 0.03 0.03 0.03 89 1010.4
20260905201303 80 132 1.0 3.0 0.03 0.03 0.03 90 1010.4
20260905201104 80 125 1.0 3.0 0.03 0.03 0.03 90 1010.2
20260905201004 79 123 1.0 3.0 0.03 0.03 0.03 89 1010.2
20260905200903 79 121 1.0 3.0 0.03 0.03 0.03 89 1010.2
20260905200803 79 118 1.0 3.0 0.03 0.03 0.03 89 1010.2
20260905200703 79 95 1.0 4.0 0.03 0.03 0.03 88 1010.2
20260905200616 80 91 1.0 4.0 0.03 0.03 0.03 87 1010.2
20260905200603 80 89 1.0 4.0 0.03 0.03 0.03 87 1010.2
20260905200503 80 94 1.0 4.0 0.03 0.03 0.03 87 1010.2
20260905200303 80 43 1.0 4.0 0.03 0.03 0.03 85 1010.2
20260905200203 80 193 1.0 4.0 0.02 0.02 0.02 85 1010.2
20260905200003 81 231 1.0 4.0 0.02 0.02 0.02 82 1010.3
20260905195903 82 239 1.0 4.0 0.02 0.02 0.02 81 1010.3
20260905195803 82 251 1.0 4.0 0.02 0.02 0.02 78 1010.4
20260905195704 83 248 1.0 4.0 0.02 0.02 0.02 77 1010.4
20260905195603 84 259 1.0 4.0 0.02 0.02 0.02 74 1010.4
20260905195503 84 320 2.0 9.0 0.02 0.02 0.02 72 1010.5
20260905195403 85 328 2.0 9.0 0.02 0.02 0.02 69 1010.5
20260905195306 86 334 2.0 9.0 0.01 0.01 0.01 68 1010.5
20260905195204 87 340 2.0 9.0 0.01 0.01 0.01 68 1010.5
20260905195104 88 348 2.0 9.0 0.00 0.00 0.00 68 1010.5
20260905195004 88 356 2.0 9.0 0.00 0.00 0.00 64 1010.5
20260905194903 88 358 2.0 9.0 0.00 0.00 0.00 63 1010.5
20260905194703 89 7 2.0 9.0 0.00 0.00 0.00 64 1010.7
20260905194603 90 12 2.0 9.0 0.00 0.00 0.00 67 1010.7
20260905194504 90 16 2.0 7.0 0.00 0.00 0.00 66 1010.6
20260905194404 90 18 2.0 7.0 0.00 0.00 0.00 65 1010.6
20260905194303 90 21 2.0 7.0 0.00 0.00 0.00 66 1010.6
20260905194104 90 21 2.0 7.0 0.00 0.00 0.00 63 1010.7
20260905194003 91 16 2.0 7.0 0.00 0.00 0.00 62 1010.6
20260905193903 92 16 2.0 7.0 0.00 0.00 0.00 60 1010.6
20260905193803 93 16 2.0 7.0 0.00 0.00 0.00 60 1010.6
20260905193704 93 15 2.0 7.0 0.00 0.00 0.00 59 1010.6
20260905193603 94 12 2.0 7.0 0.00 0.00 0.00 60 1010.6
20260905193503 94 13 2.0 7.0 0.00 0.00 0.00 58 1010.6
20260905193417 94 14 2.0 7.0 0.00 0.00 0.00 57 1010.6
20260905193403 94 14 2.0 7.0 0.00 0.00 0.00 56 1010.6
20260905193318 94 13 2.0 7.0 0.00 0.00 0.00 56 1010.6
20260905193303 94 14 2.0 7.0 0.00 0.00 0.00 56 1010.6
20260905193004 96 11 2.0 7.0 0.00 0.00 0.00 55 1010.6
20260905192903 96 11 1.0 7.0 0.00 0.00 0.00 54 1010.7
20260905192804 96 10 1.0 5.0 0.00 0.00 0.00 54 1010.7
20260905192703 97 12 1.0 4.0 0.00 0.00 0.00 52 1010.6
20260905192603 97 14 1.0 4.0 0.00 0.00 0.00 52 1010.6
20260905192503 97 13 1.0 3.0 0.00 0.00 0.00 52 1010.6
20260905192404 97 12 1.0 2.0 0.00 0.00 0.00 53 1010.6
20260905192318 98 15 1.0 3.0 0.00 0.00 0.00 51 1010.6
20260905192305 98 17 1.0 3.0 0.00 0.00 0.00 51 1010.6
20260905192216 98 26 1.0 3.0 0.00 0.00 0.00 51 1010.5
20260905192203 98 31 1.0 3.0 0.00 0.00 0.00 50 1010.5
20260905191903 98 42 2.0 3.0 0.00 0.00 0.00 51 1010.5
20260905191804 98 38 2.0 4.0 0.00 0.00 0.00 51 1010.5
20260905191703 98 33 2.0 4.0 0.00 0.00 0.00 51 1010.5
20260905191603 98 30 2.0 4.0 0.00 0.00 0.00 52 1010.5
20260905191504 97 20 2.0 5.0 0.00 0.00 0.00 51 1010.5
20260905191404 97 14 2.0 5.0 0.00 0.00 0.00 50 1010.6
20260905191304 97 12 2.0 5.0 0.00 0.00 0.00 50 1010.6
20260905191219 98 8 2.0 5.0 0.00 0.00 0.00 50 1010.6
20260905191204 98 7 2.0 5.0 0.00 0.00 0.00 50 1010.6
20260905191104 98 4 1.0 5.0 0.00 0.00 0.00 49 1010.7
20260905191018 98 6 1.0 5.0 0.00 0.00 0.00 49 1010.7
20260905190903 98 10 1.0 5.0 0.00 0.00 0.00 48 1010.7
20260905190817 98 13 1.0 5.0 0.00 0.00 0.00 49 1010.7
20260905190704 99 18 1.0 5.0 0.00 0.00 0.00 48 1010.8
20260905190504 99 34 1.0 4.0 0.00 0.00 0.00 49 1010.8
20260905190404 99 46 1.0 3.0 0.00 0.00 0.00 50 1010.8
20260905190318 99 49 1.0 3.0 0.00 0.00 0.00 51 1010.8
20260905190303 99 48 1.0 3.0 0.00 0.00 0.00 51 1010.8
20260905190203 98 45 1.0 3.0 0.00 0.00 0.00 49 1010.7
20260905190003 98 40 1.0 5.0 0.00 0.00 0.00 48 1010.7
20260905185904 98 35 2.0 5.0 0.00 0.00 0.00 49 1010.6
20260905185803 98 30 2.0 5.0 0.00 0.00 0.00 49 1010.6
20260905185703 98 25 2.0 5.0 0.00 0.00 0.00 49 1010.6
20260905185604 98 22 2.0 5.0 0.00 0.00 0.00 49 1010.6
20260905185503 98 17 2.0 5.0 0.00 0.00 0.00 50 1010.6
20260905185404 98 8 2.0 5.0 0.00 0.00 0.00 50 1010.6
20260905185306 99 2 2.0 5.0 0.00 0.00 0.00 50 1010.6
20260905185216 99 358 2.0 5.0 0.00 0.00 0.00 49 1010.6
20260905185204 99 357 2.0 5.0 0.00 0.00 0.00 49 1010.6
20260905185104 99 357 2.0 5.0 0.00 0.00 0.00 48 1010.6
20260905184904 100 353 2.0 4.0 0.00 0.00 0.00 49 1010.6
20260905184804 100 354 1.0 4.0 0.00 0.00 0.00 51 1010.6
20260905184703 100 360 1.0 4.0 0.00 0.00 0.00 51 1010.6
20260905184603 100 2 1.0 4.0 0.00 0.00 0.00 50 1010.6
20260905184504 100 7 1.0 4.0 0.00 0.00 0.00 50 1010.6
20260905184403 99 14 1.0 4.0 0.00 0.00 0.00 52 1010.6
20260905184318 99 18 1.0 4.0 0.00 0.00 0.00 50 1010.6
20260905184303 99 20 1.0 4.0 0.00 0.00 0.00 50 1010.6
20260905184204 98 26 1.0 3.0 0.00 0.00 0.00 51 1010.6
20260905184119 98 25 1.0 3.0 0.00 0.00 0.00 51 1010.7
20260905184003 98 20 1.0 3.0 0.00 0.00 0.00 54 1010.8
20260905183803 98 17 2.0 9.0 0.00 0.00 0.00 53 1010.8
20260905183704 98 14 2.0 9.0 0.00 0.00 0.00 52 1010.8
20260905183503 98 11 2.0 9.0 0.00 0.00 0.00 52 1010.9
20260905183403 98 10 2.0 9.0 0.00 0.00 0.00 52 1010.9
20260905183303 98 8 2.0 9.0 0.00 0.00 0.00 52 1010.9
20260905183204 98 6 2.0 9.0 0.00 0.00 0.00 52 1010.9
20260905183104 98 5 3.0 9.0 0.00 0.00 0.00 52 1010.9
20260905183004 98 6 3.0 9.0 0.00 0.00 0.00 52 1010.9
20260905182903 98 9 2.0 7.0 0.00 0.00 0.00 52 1010.9
20260905182803 98 7 2.0 7.0 0.00 0.00 0.00 52 1010.9
20260905182704 98 12 2.0 7.0 0.00 0.00 0.00 53 1011.1
20260905182604 99 31 2.0 5.0 0.00 0.00 0.00 51 1011.1
20260905182516 99 168 2.0 5.0 0.00 0.00 0.00 54 1011.1
20260905182504 99 173 2.0 5.0 0.00 0.00 0.00 54 1011.1
20260905182403 98 178 1.0 5.0 0.00 0.00 0.00 53 1011.1
20260905182204 98 173 1.0 5.0 0.00 0.00 0.00 54 1011.1
20260905182103 97 163 1.0 3.0 0.00 0.00 0.00 55 1011.1
20260905182003 97 141 1.0 5.0 0.00 0.00 0.00 55 1011.1
20260905181903 97 86 1.0 5.0 0.00 0.00 0.00 55 1011.1
20260905181803 97 44 1.0 5.0 0.00 0.00 0.00 55 1011.2
20260905181703 97 30 2.0 5.0 0.00 0.00 0.00 54 1011.2
20260905181618 97 30 2.0 5.0 0.00 0.00 0.00 56 1011.2
20260905181603 97 32 2.0 5.0 0.00 0.00 0.00 56 1011.2
20260905181503 97 25 1.0 5.0 0.00 0.00 0.00 56 1011.2
20260905181303 96 19 2.0 5.0 0.00 0.00 0.00 54 1011.2
20260905181203 97 12 2.0 5.0 0.00 0.00 0.00 52 1011.2
20260905181103 97 356 2.0 5.0 0.00 0.00 0.00 52 1011.2
20260905181003 97 324 2.0 5.0 0.00 0.00 0.00 54 1011.3
20260905180903 97 249 1.0 5.0 0.00 0.00 0.00 54 1011.3
20260905180816 97 236 1.0 5.0 0.00 0.00 0.00 53 1011.3
20260905180803 98 228 1.0 5.0 0.00 0.00 0.00 53 1011.3
20260905180704 98 221 1.0 4.0 0.00 0.00 0.00 52 1011.3
20260905180518 98 245 1.0 6.0 0.00 0.00 0.00 53 1011.3
20260905180503 97 247 1.0 6.0 0.00 0.00 0.00 53 1011.3
20260905180403 97 260 1.0 6.0 0.00 0.00 0.00 52 1011.4
20260905180203 98 300 1.0 6.0 0.00 0.00 0.00 52 1011.4
20260905180103 98 313 1.0 6.0 0.00 0.00 0.00 52 1011.4
20260905180017 98 318 1.0 6.0 0.00 0.00 0.00 52 1011.4
20260905180004 98 319 1.0 6.0 0.00 0.00 0.00 53 1011.4
20260905175903 98 329 1.0 6.0 0.00 0.00 0.00 54 1011.4
20260905175703 98 349 1.0 6.0 0.00 0.00 0.00 52 1011.5
20260905175603 98 349 1.0 4.0 0.00 0.00 0.00 53 1011.5
20260905175504 98 353 1.0 4.0 0.00 0.00 0.00 54 1011.5
20260905175403 98 360 1.0 4.0 0.00 0.00 0.00 55 1011.5
20260905175306 98 9 1.0 4.0 0.00 0.00 0.00 55 1011.5
20260905175204 97 13 1.0 4.0 0.00 0.00 0.00 55 1011.6
20260905175103 97 19 1.0 4.0 0.00 0.00 0.00 55 1011.6
20260905175004 97 27 1.0 4.0 0.00 0.00 0.00 56 1011.6
20260905174904 98 25 1.0 4.0 0.00 0.00 0.00 54 1011.6
20260905174804 98 14 2.0 6.0 0.00 0.00 0.00 54 1011.6
20260905174703 98 4 1.0 6.0 0.00 0.00 0.00 56 1011.6
20260905174604 98 348 2.0 7.0 0.00 0.00 0.00 54 1011.5
20260905174503 98 327 2.0 7.0 0.00 0.00 0.00 54 1011.5
20260905174403 98 325 2.0 7.0 0.00 0.00 0.00 56 1011.5
20260905174304 98 327 2.0 7.0 0.00 0.00 0.00 54 1011.5
20260905174203 98 323 2.0 7.0 0.00 0.00 0.00 53 1011.6
20260905174103 98 317 2.0 7.0 0.00 0.00 0.00 53 1011.6
20260905174003 98 309 2.0 7.0 0.00 0.00 0.00 53 1011.6
20260905173903 98 306 2.0 7.0 0.00 0.00 0.00 53 1011.6
20260905173803 98 304 2.0 7.0 0.00 0.00 0.00 53 1011.6
20260905173719 98 297 2.0 7.0 0.00 0.00 0.00 53 1011.6
20260905173703 98 293 2.0 7.0 0.00 0.00 0.00 53 1011.6
20260905173603 98 273 2.0 7.0 0.00 0.00 0.00 54 1011.6
20260905173518 98 242 2.0 6.0 0.00 0.00 0.00 55 1011.6
20260905173403 98 220 1.0 4.0 0.00 0.00 0.00 56 1011.6
20260905173203 98 197 1.0 4.0 0.00 0.00 0.00 55 1011.6
20260905173103 98 193 1.0 4.0 0.00 0.00 0.00 55 1011.6
20260905173004 98 190 1.0 4.0 0.00 0.00 0.00 55 1011.6
20260905172904 98 197 1.0 4.0 0.00 0.00 0.00 55 1011.6
20260905172803 98 204 1.0 4.0 0.00 0.00 0.00 55 1011.7
20260905172703 98 215 1.0 4.0 0.00 0.00 0.00 55 1011.7
20260905172603 97 254 1.0 4.0 0.00 0.00 0.00 57 1011.7
20260905172518 97 265 1.0 4.0 0.00 0.00 0.00 57 1011.7
20260905172504 97 264 1.0 4.0 0.00 0.00 0.00 56 1011.7
20260905172403 97 262 1.0 4.0 0.00 0.00 0.00 56 1011.7
20260905172203 97 266 1.0 3.0 0.00 0.00 0.00 55 1011.7
20260905172103 97 273 1.0 3.0 0.00 0.00 0.00 55 1011.7
20260905172003 97 282 1.0 3.0 0.00 0.00 0.00 56 1011.7
20260905171904 97 289 1.0 7.0 0.00 0.00 0.00 57 1011.7
20260905171803 97 286 1.0 7.0 0.00 0.00 0.00 57 1011.7
20260905171703 97 283 1.0 7.0 0.00 0.00 0.00 57 1011.7
20260905171604 97 284 1.0 7.0 0.00 0.00 0.00 57 1011.8
20260905171503 97 288 1.0 7.0 0.00 0.00 0.00 58 1011.9
20260905171403 97 291 1.0 7.0 0.00 0.00 0.00 57 1011.9
20260905171303 97 295 1.0 7.0 0.00 0.00 0.00 57 1011.9
20260905171204 97 293 1.0 7.0 0.00 0.00 0.00 56 1011.9
20260905171103 96 293 1.0 7.0 0.00 0.00 0.00 57 1011.9
20260905171003 96 292 1.0 7.0 0.00 0.00 0.00 56 1012.0
20260905170904 96 283 1.0 4.0 0.00 0.00 0.00 58 1012.0
20260905170803 96 283 1.0 4.0 0.00 0.00 0.00 57 1011.9
20260905170704 96 286 1.0 4.0 0.00 0.00 0.00 57 1011.9
20260905170603 96 284 1.0 3.0 0.00 0.00 0.00 57 1012.0
20260905170503 96 282 1.0 3.0 0.00 0.00 0.00 57 1012.0
20260905170403 96 275 1.0 3.0 0.00 0.00 0.00 58 1012.0
20260905170303 96 252 1.0 3.0 0.00 0.00 0.00 59 1012.0
20260905170203 96 245 1.0 3.0 0.00 0.00 0.00 59 1012.0
20260905170118 96 243 1.0 3.0 0.00 0.00 0.00 59 1012.0
20260905170003 96 243 1.0 3.0 0.00 0.00 0.00 61 1012.0
20260905165917 96 239 1.0 3.0 0.00 0.00 0.00 60 1012.0
20260905165818 96 250 1.0 3.0 0.00 0.00 0.00 60 1012.0
20260905165803 96 254 1.0 3.0 0.00 0.00 0.00 60 1012.0
20260905165518 95 284 1.0 4.0 0.00 0.00 0.00 61 1012.2
20260905165504 95 297 1.0 4.0 0.00 0.00 0.00 61 1012.2
20260905165403 95 316 1.0 7.0 0.00 0.00 0.00 60 1012.2
20260905165217 95 303 1.0 7.0 0.00 0.00 0.00 62 1012.2
20260905165204 95 301 1.0 7.0 0.00 0.00 0.00 62 1012.2
20260905165103 95 313 2.0 7.0 0.00 0.00 0.00 62 1012.2
20260905164903 95 341 2.0 7.0 0.00 0.00 0.00 62 1012.3
20260905164804 94 351 2.0 7.0 0.00 0.00 0.00 62 1012.2
20260905164703 94 358 2.0 7.0 0.00 0.00 0.00 63 1012.3
20260905164604 94 2 2.0 7.0 0.00 0.00 0.00 62 1012.3
20260905164518 94 2 2.0 7.0 0.00 0.00 0.00 62 1012.3
20260905164503 94 1 2.0 7.0 0.00 0.00 0.00 61 1012.3
20260905164403 94 353 2.0 5.0 0.00 0.00 0.00 61 1012.3
20260905164317 94 353 2.0 5.0 0.00 0.00 0.00 61 1012.3
20260905164203 94 354 2.0 5.0 0.00 0.00 0.00 61 1012.3
20260905164004 94 357 2.0 5.0 0.00 0.00 0.00 62 1012.4
20260905163917 94 358 2.0 5.0 0.00 0.00 0.00 63 1012.4
20260905163904 94 358 2.0 5.0 0.00 0.00 0.00 62 1012.4
20260905163803 94 356 2.0 5.0 0.00 0.00 0.00 64 1012.4
20260905163716 94 352 1.0 4.0 0.00 0.00 0.00 64 1012.4
20260905163603 94 351 1.0 4.0 0.00 0.00 0.00 63 1012.4
20260905163404 94 2 1.0 4.0 0.00 0.00 0.00 63 1012.4
20260905163317 94 6 1.0 4.0 0.00 0.00 0.00 63 1012.4
20260905163303 94 8 1.0 4.0 0.00 0.00 0.00 64 1012.4
20260905163203 93 14 1.0 4.0 0.00 0.00 0.00 63 1012.4
20260905163118 93 12 1.0 4.0 0.00 0.00 0.00 62 1012.4
20260905163003 93 1 1.0 4.0 0.00 0.00 0.00 64 1012.4
20260905162803 93 347 1.0 3.0 0.00 0.00 0.00 65 1012.4
20260905162704 93 344 1.0 3.0 0.00 0.00 0.00 65 1012.4
20260905162603 93 346 1.0 3.0 0.00 0.00 0.00 66 1012.4
20260905162503 93 346 1.0 3.0 0.00 0.00 0.00 65 1012.4
20260905162403 93 349 1.0 3.0 0.00 0.00 0.00 65 1012.5
20260905162305 93 352 1.0 3.0 0.00 0.00 0.00 64 1012.5
20260905162204 93 354 1.0 3.0 0.00 0.00 0.00 64 1012.5
20260905162103 92 354 1.0 3.0 0.00 0.00 0.00 65 1012.5
20260905162003 92 1 1.0 3.0 0.00 0.00 0.00 65 1012.5
20260905161903 92 7 1.0 3.0 0.00 0.00 0.00 65 1012.6
20260905161804 92 9 1.0 3.0 0.00 0.00 0.00 65 1012.6
20260905161703 92 13 1.0 3.0 0.00 0.00 0.00 66 1012.6
20260905161604 92 14 1.0 3.0 0.00 0.00 0.00 66 1012.6
20260905161404 92 14 1.0 3.0 0.00 0.00 0.00 66 1012.6
20260905161303 92 13 1.0 3.0 0.00 0.00 0.00 68 1012.6
20260905161203 92 13 1.0 3.0 0.00 0.00 0.00 67 1012.6
20260905161118 92 12 1.0 3.0 0.00 0.00 0.00 66 1012.6
20260905161103 92 10 1.0 3.0 0.00 0.00 0.00 66 1012.6
20260905160919 92 245 1.0 3.0 0.00 0.00 0.00 67 1012.6
20260905160818 92 252 1.0 3.0 0.00 0.00 0.00 67 1012.6
20260905160803 92 255 1.0 3.0 0.00 0.00 0.00 67 1012.6
20260905160503 91 275 1.0 4.0 0.00 0.00 0.00 67 1012.6
20260905160418 91 276 1.0 4.0 0.00 0.00 0.00 67 1012.6
20260905160403 91 281 1.0 4.0 0.00 0.00 0.00 68 1012.6
20260905160304 91 295 1.0 4.0 0.00 0.00 0.00 68 1012.6
20260905160217 91 299 1.0 4.0 0.00 0.00 0.00 67 1012.6
20260905160104 90 306 1.0 4.0 0.00 0.00 0.00 70 1012.6
20260905160016 90 306 1.0 4.0 0.00 0.00 0.00 70 1012.6
20260905155904 90 301 1.0 4.0 0.00 0.00 0.00 69 1012.6
20260905155818 90 298 1.0 4.0 0.00 0.00 0.00 69 1012.6
20260905155703 90 296 1.0 4.0 0.00 0.00 0.00 71 1012.6
20260905155517 90 290 1.0 3.0 0.00 0.00 0.00 70 1012.6
20260905155503 90 291 1.0 4.0 0.00 0.00 0.00 70 1012.7
20260905155403 90 291 1.0 4.0 0.00 0.00 0.00 70 1012.7
20260905155203 90 289 1.0 4.0 0.00 0.00 0.00 70 1012.7
20260905155103 90 286 1.0 4.0 0.00 0.00 0.00 71 1012.7
20260905155003 90 287 1.0 4.0 0.00 0.00 0.00 71 1012.8
20260905154903 89 285 1.0 4.0 0.00 0.00 0.00 71 1012.8
20260905154803 89 283 1.0 4.0 0.00 0.00 0.00 71 1012.8
20260905154703 89 276 1.0 4.0 0.00 0.00 0.00 71 1012.8
20260905154603 89 260 1.0 4.0 0.00 0.00 0.00 69 1012.8
20260905154503 89 243 1.0 3.0 0.00 0.00 0.00 70 1012.9
20260905154403 89 231 1.0 3.0 0.00 0.00 0.00 70 1012.9
20260905154303 89 221 1.0 3.0 0.00 0.00 0.00 70 1012.8
20260905154204 89 202 1.0 3.0 0.00 0.00 0.00 72 1012.9
20260905154103 89 213 1.0 3.0 0.00 0.00 0.00 73 1012.9
20260905154004 89 215 1.0 3.0 0.00 0.00 0.00 72 1012.9
20260905153903 88 219 1.0 3.0 0.00 0.00 0.00 72 1012.9
20260905153804 88 224 1.0 3.0 0.00 0.00 0.00 73 1012.9
20260905153703 88 237 1.0 3.0 0.00 0.00 0.00 72 1012.9
20260905153617 88 261 0.0 2.0 0.00 0.00 0.00 73 1012.9
20260905153603 88 259 0.0 2.0 0.00 0.00 0.00 73 1012.9
20260905153503 88 263 0.0 2.0 0.00 0.00 0.00 73 1012.9
20260905153303 88 274 0.0 2.0 0.00 0.00 0.00 73 1012.9
20260905153203 87 284 0.0 2.0 0.00 0.00 0.00 73 1012.9
20260905153104 87 293 0.0 2.0 0.00 0.00 0.00 74 1012.9
20260905153018 87 302 0.0 2.0 0.00 0.00 0.00 74 1012.9
20260905153003 87 307 0.0 2.0 0.00 0.00 0.00 74 1012.9
20260905152917 87 312 1.0 2.0 0.00 0.00 0.00 74 1012.9
20260905152904 87 314 1.0 2.0 0.00 0.00 0.00 74 1012.9
20260905152817 86 315 1.0 2.0 0.00 0.00 0.00 75 1013.0
20260905152503 86 308 1.0 3.0 0.00 0.00 0.00 77 1012.9
20260905152418 86 285 1.0 4.0 0.00 0.00 0.00 77 1012.9
20260905152403 86 280 1.0 4.0 0.00 0.00 0.00 77 1013.0
20260905152306 86 276 1.0 4.0 0.00 0.00 0.00 76 1013.0
20260905152217 85 268 1.0 4.0 0.00 0.00 0.00 77 1012.9
20260905152103 85 264 1.0 4.0 0.00 0.00 0.00 77 1012.9
20260905151903 85 255 1.0 4.0 0.00 0.00 0.00 79 1012.9
20260905151804 85 255 1.0 4.0 0.00 0.00 0.00 79 1012.9
20260905151703 84 252 1.0 4.0 0.00 0.00 0.00 79 1013.0
20260905151603 84 249 1.0 4.0 0.00 0.00 0.00 79 1013.0
20260905151503 84 251 1.0 4.0 0.00 0.00 0.00 80 1013.0
20260905151418 84 258 0.0 3.0 0.00 0.00 0.00 80 1012.9
20260905151303 84 263 0.0 3.0 0.00 0.00 0.00 81 1012.9
20260905151104 84 254 0.0 2.0 0.00 0.00 0.00 82 1012.9
20260905151004 84 243 0.0 2.0 0.00 0.00 0.00 82 1012.9
20260905150904 84 238 0.0 2.0 0.00 0.00 0.00 83 1012.9
20260905150803 84 241 0.0 2.0 0.00 0.00 0.00 83 1012.9
20260905150704 83 247 0.0 2.0 0.00 0.00 0.00 83 1013.0
20260905150603 83 250 0.0 2.0 0.00 0.00 0.00 83 1013.0
20260905150517 83 251 0.0 2.0 0.00 0.00 0.00 84 1013.0
20260905150503 83 252 0.0 2.0 0.00 0.00 0.00 83 1013.0
20260905150203 83 268 0.0 2.0 0.00 0.00 0.00 84 1013.0
20260905150004 83 281 0.0 2.0 0.00 0.00 0.00 84 1013.0
20260905145903 82 291 0.0 2.0 0.00 0.00 0.00 84 1013.1
20260905145804 82 291 0.0 2.0 0.00 0.00 0.00 84 1013.1
20260905145704 82 291 0.0 2.0 0.00 0.00 0.00 84 1013.2
20260905145603 82 291 0.0 2.0 0.00 0.00 0.00 84 1013.2
20260905145403 82 291 0.0 2.0 0.00 0.00 0.00 84 1013.2
20260905145306 82 291 0.0 2.0 0.00 0.00 0.00 84 1013.3
20260905145204 82 291 0.0 2.0 0.00 0.00 0.00 84 1013.3
20260905145103 82 291 0.0 2.0 0.00 0.00 0.00 84 1013.2
20260905144903 82 291 0.0 2.0 0.00 0.00 0.00 85 1013.3
20260905144803 82 291 0.0 2.0 0.00 0.00 0.00 85 1013.3
20260905144603 82 291 0.0 2.0 0.00 0.00 0.00 85 1013.3
20260905144517 81 291 0.0 1.0 0.00 0.00 0.00 86 1013.3
20260905144503 81 0 0.0 0.0 0.00 0.00 0.00 86 1013.3
20260905144403 81 0 0.0 0.0 0.00 0.00 0.00 86 1013.3
20260905144204 81 0 0.0 0.0 0.00 0.00 0.00 86 1013.3
20260905144103 81 0 0.0 0.0 0.00 0.00 0.00 86 1013.3
20260905144004 81 0 0.0 0.0 0.00 0.00 0.00 86 1013.3
20260905143904 81 0 0.0 0.0 0.00 0.00 0.00 86 1013.2
20260905143703 81 0 0.0 0.0 0.00 0.00 0.00 86 1013.2
20260905143603 80 0 0.0 0.0 0.00 0.00 0.00 87 1013.2
20260905143519 80 0 0.0 0.0 0.00 0.00 0.00 87 1013.2
20260905143503 80 0 0.0 0.0 0.00 0.00 0.00 87 1013.3
20260905143404 80 0 0.0 0.0 0.00 0.00 0.00 87 1013.3
20260905143204 80 0 0.0 0.0 0.00 0.00 0.00 87 1013.3
20260905143104 80 0 0.0 0.0 0.00 0.00 0.00 87 1013.3
20260905143003 80 0 0.0 0.0 0.00 0.00 0.00 88 1013.2
20260905142804 80 0 0.0 0.0 0.00 0.00 0.00 88 1013.2
20260905142704 80 0 0.0 0.0 0.00 0.00 0.00 88 1013.2
20260905142617 80 0 0.0 0.0 0.00 0.00 0.00 88 1013.2
20260905142504 80 0 0.0 0.0 0.00 0.00 0.00 88 1013.2
20260905142305 80 0 0.0 0.0 0.00 0.00 0.00 89 1013.2
20260905142203 80 0 0.0 0.0 0.00 0.00 0.00 89 1013.2
20260905142103 80 0 0.0 0.0 0.00 0.00 0.00 89 1013.2
20260905142004 80 0 0.0 0.0 0.00 0.00 0.00 89 1013.1
20260905141904 80 0 0.0 0.0 0.00 0.00 0.00 89 1013.1
20260905141803 80 0 0.0 0.0 0.00 0.00 0.00 89 1013.2
20260905141703 80 0 0.0 0.0 0.00 0.00 0.00 89 1013.1
20260905141604 79 0 0.0 0.0 0.00 0.00 0.00 89 1013.1
20260905141504 79 0 0.0 0.0 0.00 0.00 0.00 89 1013.1
20260905141303 79 0 0.0 0.0 0.00 0.00 0.00 89 1013.1
20260905141203 79 0 0.0 0.0 0.00 0.00 0.00 89 1013.1
20260905141103 79 0 0.0 0.0 0.00 0.00 0.00 89 1013.1
20260905141003 79 0 0.0 0.0 0.00 0.00 0.00 90 1013.1
20260905140918 79 0 0.0 0.0 0.00 0.00 0.00 90 1013.1
20260905140603 79 0 0.0 0.0 0.00 0.00 0.00 90 1013.1
20260905140503 79 0 0.0 0.0 0.00 0.00 0.00 90 1013.1
20260905140403 79 0 0.0 0.0 0.00 0.00 0.00 90 1013.1
20260905140303 79 0 0.0 0.0 0.00 0.00 0.00 90 1013.1
20260905140205 79 0 0.0 0.0 0.00 0.00 0.00 90 1013.0
20260905140004 79 0 0.0 0.0 0.00 0.00 0.00 90 1013.0
20260905135903 79 0 0.0 0.0 0.00 0.00 0.00 90 1013.1
20260905135803 79 0 0.0 0.0 0.00 0.00 0.00 90 1013.1
20260905135703 79 0 0.0 0.0 0.00 0.00 0.00 90 1013.1
20260905135603 79 0 0.0 0.0 0.00 0.00 0.00 90 1013.1
20260905135503 78 0 0.0 0.0 0.00 0.00 0.00 90 1013.1
20260905135404 78 0 0.0 0.0 0.00 0.00 0.00 91 1013.1
20260905135306 78 0 0.0 0.0 0.00 0.00 0.00 91 1013.1
20260905135203 78 0 0.0 0.0 0.00 0.00 0.00 91 1013.1
20260905135103 78 0 0.0 0.0 0.00 0.00 0.00 91 1013.1
20260905135003 78 0 0.0 0.0 0.00 0.00 0.00 91 1013.1
20260905134903 78 0 0.0 0.0 0.00 0.00 0.00 91 1013.1
20260905134819 78 0 0.0 0.0 0.00 0.00 0.00 91 1013.1
20260905134503 78 0 0.0 0.0 0.00 0.00 0.00 91 1013.1
20260905134403 78 0 0.0 0.0 0.00 0.00 0.00 91 1013.2
20260905134203 77 0 0.0 0.0 0.00 0.00 0.00 92 1013.2
20260905134103 77 0 0.0 0.0 0.00 0.00 0.00 92 1013.2
20260905134003 77 0 0.0 0.0 0.00 0.00 0.00 92 1013.2
20260905133904 77 0 0.0 0.0 0.00 0.00 0.00 92 1013.1
20260905133804 77 0 0.0 0.0 0.00 0.00 0.00 92 1013.1
20260905133604 77 291 0.0 1.0 0.00 0.00 0.00 93 1013.1
20260905133504 77 291 0.0 1.0 0.00 0.00 0.00 93 1013.1
20260905133403 77 291 0.0 1.0 0.00 0.00 0.00 93 1013.2
20260905133304 76 291 0.0 1.0 0.00 0.00 0.00 93 1013.2
20260905133203 76 291 0.0 1.0 0.00 0.00 0.00 93 1013.2
20260905133119 76 291 0.0 1.0 0.00 0.00 0.00 93 1013.2
20260905133003 76 291 0.0 1.0 0.00 0.00 0.00 93 1013.2
20260905132703 76 291 0.0 1.0 0.00 0.00 0.00 93 1013.3
20260905132618 76 0 0.0 0.0 0.00 0.00 0.00 93 1013.3
20260905132603 76 0 0.0 0.0 0.00 0.00 0.00 94 1013.3
20260905132503 76 0 0.0 0.0 0.00 0.00 0.00 94 1013.3
20260905132305 76 0 0.0 0.0 0.00 0.00 0.00 94 1013.4
20260905132204 76 0 0.0 0.0 0.00 0.00 0.00 94 1013.4
20260905132103 76 0 0.0 0.0 0.00 0.00 0.00 94 1013.4
20260905132003 76 0 0.0 0.0 0.00 0.00 0.00 94 1013.4
20260905131903 76 0 0.0 0.0 0.00 0.00 0.00 94 1013.4
20260905131803 76 0 0.0 0.0 0.00 0.00 0.00 94 1013.4
20260905131703 76 0 0.0 0.0 0.00 0.00 0.00 94 1013.4
20260905131504 75 0 0.0 0.0 0.00 0.00 0.00 94 1013.5
20260905131403 75 0 0.0 0.0 0.00 0.00 0.00 94 1013.5
20260905131304 75 0 0.0 0.0 0.00 0.00 0.00 94 1013.4
20260905131204 75 0 0.0 0.0 0.00 0.00 0.00 94 1013.4
20260905131104 75 0 0.0 0.0 0.00 0.00 0.00 94 1013.4
20260905131003 75 0 0.0 0.0 0.00 0.00 0.00 94 1013.4
20260905130803 75 0 0.0 0.0 0.00 0.00 0.00 94 1013.4
20260905130703 75 0 0.0 0.0 0.00 0.00 0.00 94 1013.4
20260905130603 75 0 0.0 0.0 0.00 0.00 0.00 94 1013.4
20260905130503 75 0 0.0 0.0 0.00 0.00 0.00 94 1013.4
20260905130404 75 0 0.0 0.0 0.00 0.00 0.00 94 1013.4
20260905130303 75 0 0.0 0.0 0.00 0.00 0.00 94 1013.4
20260905130003 75 0 0.0 0.0 0.00 0.00 0.00 95 1013.4
20260905125903 74 0 0.0 0.0 0.00 0.00 0.00 95 1013.4
20260905125804 74 0 0.0 0.0 0.00 0.00 0.00 95 1013.4
20260905125703 74 0 0.0 0.0 0.00 0.00 0.00 95 1013.4
20260905125618 74 0 0.0 0.0 0.00 0.00 0.00 95 1013.4
20260905125603 74 0 0.0 0.0 0.00 0.00 0.00 94 1013.4
20260905125504 74 0 0.0 0.0 0.00 0.00 0.00 94 1013.4
20260905125417 74 0 0.0 0.0 0.00 0.00 0.00 94 1013.4
20260905125306 74 0 0.0 0.0 0.00 0.00 0.00 94 1013.4
20260905125103 74 0 0.0 0.0 0.00 0.00 0.00 94 1013.4
20260905125003 74 0 0.0 0.0 0.00 0.00 0.00 94 1013.4
20260905124904 74 0 0.0 0.0 0.00 0.00 0.00 94 1013.4
20260905124704 74 0 0.0 0.0 0.00 0.00 0.00 94 1013.4
20260905124604 74 0 0.0 0.0 0.00 0.00 0.00 94 1013.4
20260905124504 74 0 0.0 0.0 0.00 0.00 0.00 94 1013.4
20260905124404 74 0 0.0 0.0 0.00 0.00 0.00 94 1013.4
20260905124303 74 0 0.0 0.0 0.00 0.00 0.00 94 1013.4
20260905124204 74 0 0.0 0.0 0.00 0.00 0.00 94 1013.3
20260905124003 74 0 0.0 0.0 0.00 0.00 0.00 94 1013.3
20260905123904 74 0 0.0 0.0 0.00 0.00 0.00 94 1013.3
20260905123803 73 0 0.0 0.0 0.00 0.00 0.00 94 1013.3
20260905123704 74 0 0.0 0.0 0.00 0.00 0.00 94 1013.3
20260905123603 73 0 0.0 0.0 0.00 0.00 0.00 94 1013.3
20260905123503 73 0 0.0 0.0 0.00 0.00 0.00 94 1013.3
20260905123403 73 0 0.0 0.0 0.00 0.00 0.00 94 1013.3
20260905123303 73 0 0.0 0.0 0.00 0.00 0.00 94 1013.3
20260905123203 73 0 0.0 0.0 0.00 0.00 0.00 94 1013.3
20260905123103 73 0 0.0 0.0 0.00 0.00 0.00 94 1013.3
20260905123003 73 0 0.0 0.0 0.00 0.00 0.00 94 1013.3
20260905122804 73 0 0.0 0.0 0.00 0.00 0.00 94 1013.3
20260905122703 73 0 0.0 0.0 0.00 0.00 0.00 94 1013.3
20260905122603 73 0 0.0 0.0 0.00 0.00 0.00 94 1013.2
20260905122503 73 0 0.0 0.0 0.00 0.00 0.00 94 1013.2
20260905122403 73 0 0.0 0.0 0.00 0.00 0.00 94 1013.2
20260905122306 73 0 0.0 0.0 0.00 0.00 0.00 94 1013.2
20260905122203 73 0 0.0 0.0 0.00 0.00 0.00 94 1013.2
20260905122117 73 0 0.0 0.0 0.00 0.00 0.00 94 1013.2
20260905122004 73 0 0.0 0.0 0.00 0.00 0.00 94 1013.3
20260905121703 73 0 0.0 0.0 0.00 0.00 0.00 94 1013.2
20260905121604 73 0 0.0 0.0 0.00 0.00 0.00 94 1013.2
20260905121503 73 0 0.0 0.0 0.00 0.00 0.00 93 1013.2
20260905121404 73 0 0.0 0.0 0.00 0.00 0.00 93 1013.2
20260905121303 73 0 0.0 0.0 0.00 0.00 0.00 93 1013.2
20260905121204 73 0 0.0 0.0 0.00 0.00 0.00 93 1013.2
20260905121103 73 0 0.0 0.0 0.00 0.00 0.00 93 1013.3
20260905121003 73 0 0.0 0.0 0.00 0.00 0.00 93 1013.3
20260905120903 73 0 0.0 0.0 0.00 0.00 0.00 93 1013.3
20260905120804 73 0 0.0 0.0 0.00 0.00 0.00 93 1013.2
20260905120717 73 0 0.0 0.0 0.00 0.00 0.00 93 1013.2
20260905120603 73 0 0.0 0.0 0.00 0.00 0.00 93 1013.2
20260905120304 73 0 0.0 0.0 0.00 0.00 0.00 93 1013.2
20260905120203 73 0 0.0 0.0 0.00 0.00 0.00 93 1013.2
20260905120004 73 0 0.0 0.0 0.00 0.00 0.00 93 1013.2
20260905115904 73 0 0.0 0.0 0.00 0.00 0.00 93 1013.2
20260905115803 73 0 0.0 0.0 0.00 0.00 0.00 93 1013.2
20260905115703 73 0 0.0 0.0 0.00 0.00 0.00 93 1013.2
20260905115603 73 0 0.0 0.0 0.00 0.00 0.00 93 1013.2
20260905115504 73 0 0.0 0.0 0.00 0.00 0.00 93 1013.2
20260905115403 73 0 0.0 0.0 0.00 0.00 0.00 93 1013.2
20260905115306 72 0 0.0 0.0 0.00 0.00 0.00 93 1013.2
20260905115203 73 0 0.0 0.0 0.00 0.00 0.00 93 1013.2
20260905115103 72 0 0.0 0.0 0.00 0.00 0.00 93 1013.2
20260905115003 72 0 0.0 0.0 0.00 0.00 0.00 93 1013.1
20260905114903 72 0 0.0 0.0 0.00 0.00 0.00 93 1013.1
20260905114803 72 0 0.0 0.0 0.00 0.00 0.00 93 1013.1
20260905114703 72 0 0.0 0.0 0.00 0.00 0.00 93 1013.1
20260905114503 72 0 0.0 0.0 0.00 0.00 0.00 93 1013.0
20260905114404 72 0 0.0 0.0 0.00 0.00 0.00 93 1013.0
20260905114303 72 0 0.0 0.0 0.00 0.00 0.00 93 1013.0
20260905114203 72 0 0.0 0.0 0.00 0.00 0.00 93 1013.0
20260905114103 72 0 0.0 0.0 0.00 0.00 0.00 93 1013.0
20260905114003 72 0 0.0 0.0 0.00 0.00 0.00 93 1013.0
20260905113904 72 0 0.0 0.0 0.00 0.00 0.00 93 1013.0
20260905113803 72 0 0.0 0.0 0.00 0.00 0.00 93 1012.9
20260905113603 72 0 0.0 0.0 0.00 0.00 0.00 93 1012.9
20260905113503 72 0 0.0 0.0 0.00 0.00 0.00 93 1012.9
20260905113404 72 0 0.0 0.0 0.00 0.00 0.00 93 1012.9
20260905113304 72 0 0.0 0.0 0.00 0.00 0.00 93 1012.8
20260905113203 72 0 0.0 0.0 0.00 0.00 0.00 93 1012.8
20260905113003 72 0 0.0 0.0 0.00 0.00 0.00 93 1012.7
20260905112903 72 0 0.0 0.0 0.00 0.00 0.00 93 1012.7
20260905112804 72 0 0.0 0.0 0.00 0.00 0.00 93 1012.7
20260905112703 72 0 0.0 0.0 0.00 0.00 0.00 93 1012.7
20260905112603 72 0 0.0 0.0 0.00 0.00 0.00 93 1012.7
20260905112504 72 0 0.0 0.0 0.00 0.00 0.00 93 1012.6
20260905112305 72 0 0.0 0.0 0.00 0.00 0.00 93 1012.6
20260905112204 72 0 0.0 0.0 0.00 0.00 0.00 93 1012.7
20260905112104 72 0 0.0 0.0 0.00 0.00 0.00 93 1012.7
20260905112003 72 0 0.0 0.0 0.00 0.00 0.00 93 1012.6
20260905111904 72 0 0.0 0.0 0.00 0.00 0.00 93 1012.6
20260905111703 72 0 0.0 0.0 0.00 0.00 0.00 93 1012.6
20260905111603 72 0 0.0 0.0 0.00 0.00 0.00 93 1012.6
20260905111504 72 0 0.0 0.0 0.00 0.00 0.00 93 1012.5
20260905111403 72 0 0.0 0.0 0.00 0.00 0.00 93 1012.5
20260905111303 72 0 0.0 0.0 0.00 0.00 0.00 93 1012.5
20260905111204 72 0 0.0 0.0 0.00 0.00 0.00 93 1012.5
20260905111103 72 0 0.0 0.0 0.00 0.00 0.00 92 1012.5
20260905111004 72 0 0.0 0.0 0.00 0.00 0.00 92 1012.4
20260905110903 72 0 0.0 0.0 0.00 0.00 0.00 92 1012.3
20260905110803 72 0 0.0 0.0 0.00 0.00 0.00 92 1012.3
20260905110703 72 0 0.0 0.0 0.00 0.00 0.00 92 1012.4
20260905110604 72 0 0.0 0.0 0.00 0.00 0.00 92 1012.4
20260905110504 72 0 0.0 0.0 0.00 0.00 0.00 92 1012.3
20260905110403 72 0 0.0 0.0 0.00 0.00 0.00 92 1012.3
20260905110303 72 0 0.0 0.0 0.00 0.00 0.00 92 1012.3
20260905110203 72 0 0.0 0.0 0.00 0.00 0.00 92 1012.3
20260905110003 72 0 0.0 0.0 0.00 0.00 0.00 92 1012.3
20260905105904 72 0 0.0 0.0 0.00 0.00 0.00 92 1012.3
20260905105804 72 0 0.0 0.0 0.00 0.00 0.00 92 1012.3
20260905105703 72 0 0.0 0.0 0.00 0.00 0.00 92 1012.2
20260905105603 72 0 0.0 0.0 0.00 0.00 0.00 92 1012.2
20260905105503 72 0 0.0 0.0 0.00 0.00 0.00 92 1012.2
20260905105403 72 0 0.0 0.0 0.00 0.00 0.00 92 1012.2
20260905105306 72 0 0.0 0.0 0.00 0.00 0.00 92 1012.2
20260905105203 72 0 0.0 0.0 0.00 0.00 0.00 92 1012.2
20260905105103 72 0 0.0 0.0 0.00 0.00 0.00 92 1012.2
20260905105003 72 0 0.0 0.0 0.00 0.00 0.00 92 1012.2
20260905104903 72 0 0.0 0.0 0.00 0.00 0.00 92 1012.2
20260905104804 72 0 0.0 0.0 0.00 0.00 0.00 92 1012.2
20260905104703 72 0 0.0 0.0 0.00 0.00 0.00 92 1012.2
20260905104604 72 0 0.0 0.0 0.00 0.00 0.00 92 1012.2
20260905104504 72 0 0.0 0.0 0.00 0.00 0.00 92 1012.2
20260905104404 72 0 0.0 0.0 0.00 0.00 0.00 92 1012.2
20260905104303 72 0 0.0 0.0 0.00 0.00 0.00 92 1012.2
20260905104217 72 0 0.0 0.0 0.00 0.00 0.00 92 1012.2
20260905104103 72 0 0.0 0.0 0.00 0.00 0.00 92 1012.2
20260905103904 72 0 0.0 0.0 0.00 0.00 0.00 92 1012.2
20260905103804 73 0 0.0 0.0 0.00 0.00 0.00 92 1012.2
20260905103703 73 0 0.0 0.0 0.00 0.00 0.00 92 1012.2
20260905103604 73 0 0.0 0.0 0.00 0.00 0.00 92 1012.2
20260905103503 73 0 0.0 0.0 0.00 0.00 0.00 92 1012.2
20260905103404 73 0 0.0 0.0 0.00 0.00 0.00 92 1012.2
20260905103304 73 0 0.0 0.0 0.00 0.00 0.00 92 1012.1
20260905103103 73 0 0.0 0.0 0.00 0.00 0.00 92 1012.1
20260905103004 73 0 0.0 0.0 0.00 0.00 0.00 92 1012.0
20260905102904 73 0 0.0 0.0 0.00 0.00 0.00 92 1012.0
20260905102804 73 0 0.0 0.0 0.00 0.00 0.00 92 1012.1
20260905102703 73 0 0.0 0.0 0.00 0.00 0.00 92 1012.1
20260905102603 73 0 0.0 0.0 0.00 0.00 0.00 92 1012.1
20260905102517 73 0 0.0 0.0 0.00 0.00 0.00 92 1012.1
20260905102503 73 0 0.0 0.0 0.00 0.00 0.00 92 1012.0
20260905102403 73 0 0.0 0.0 0.00 0.00 0.00 92 1012.0
20260905102203 73 0 0.0 0.0 0.00 0.00 0.00 92 1012.0
20260905102103 73 0 0.0 0.0 0.00 0.00 0.00 92 1012.0
20260905102003 73 0 0.0 0.0 0.00 0.00 0.00 92 1012.0
20260905101803 73 0 0.0 0.0 0.00 0.00 0.00 92 1012.0
20260905101703 73 0 0.0 0.0 0.00 0.00 0.00 92 1012.0
20260905101519 73 0 0.0 0.0 0.00 0.00 0.00 92 1012.0
20260905101404 73 0 0.0 0.0 0.00 0.00 0.00 92 1012.0
20260905101104 73 0 0.0 0.0 0.00 0.00 0.00 92 1012.0
20260905101003 73 0 0.0 0.0 0.00 0.00 0.00 92 1011.9
20260905100903 73 0 0.0 0.0 0.00 0.00 0.00 92 1011.9
20260905100804 73 0 0.0 0.0 0.00 0.00 0.00 92 1011.9
20260905100703 73 0 0.0 0.0 0.00 0.00 0.00 92 1011.9
20260905100603 73 0 0.0 0.0 0.00 0.00 0.00 92 1011.9
20260905100503 73 0 0.0 0.0 0.00 0.00 0.00 92 1011.9
20260905100403 73 0 0.0 0.0 0.00 0.00 0.00 92 1011.9
20260905100304 73 0 0.0 0.0 0.00 0.00 0.00 92 1011.9
20260905100004 73 0 0.0 0.0 0.00 0.00 0.00 92 1011.9
20260905095703 73 0 0.0 0.0 0.00 0.00 0.00 92 1011.8
20260905095604 73 0 0.0 0.0 0.00 0.00 0.00 92 1011.8
20260905095504 73 0 0.0 0.0 0.00 0.00 0.00 92 1011.8
20260905095305 73 0 0.0 0.0 0.00 0.00 0.00 92 1011.8
20260905095203 73 0 0.0 0.0 0.00 0.00 0.00 92 1011.8
20260905095004 73 0 0.0 0.0 0.00 0.00 0.00 92 1011.8
20260905094904 73 0 0.0 0.0 0.00 0.00 0.00 92 1011.8
20260905094803 73 0 0.0 0.0 0.00 0.00 0.00 91 1011.8
20260905094703 73 0 0.0 0.0 0.00 0.00 0.00 91 1011.8
20260905094603 73 0 0.0 0.0 0.00 0.00 0.00 91 1011.8
20260905094503 73 0 0.0 0.0 0.00 0.00 0.00 91 1011.8
20260905094403 73 0 0.0 0.0 0.00 0.00 0.00 91 1011.9
20260905094303 73 0 0.0 0.0 0.00 0.00 0.00 91 1011.9
20260905094203 73 0 0.0 0.0 0.00 0.00 0.00 91 1011.8
20260905094104 73 0 0.0 0.0 0.00 0.00 0.00 91 1011.9
20260905094004 73 0 0.0 0.0 0.00 0.00 0.00 91 1011.9
20260905093904 73 0 0.0 0.0 0.00 0.00 0.00 91 1011.8
20260905093804 73 0 0.0 0.0 0.00 0.00 0.00 91 1011.8
20260905093704 73 0 0.0 0.0 0.00 0.00 0.00 91 1011.8
20260905093603 73 0 0.0 0.0 0.00 0.00 0.00 91 1011.8
20260905093503 73 0 0.0 0.0 0.00 0.00 0.00 91 1011.8
20260905093403 73 0 0.0 0.0 0.00 0.00 0.00 91 1011.8
20260905093303 73 0 0.0 0.0 0.00 0.00 0.00 91 1011.8
20260905093203 73 0 0.0 0.0 0.00 0.00 0.00 91 1011.8
20260905093104 73 0 0.0 0.0 0.00 0.00 0.00 91 1011.8
20260905093003 73 0 0.0 0.0 0.00 0.00 0.00 91 1011.8
20260905092904 73 0 0.0 0.0 0.00 0.00 0.00 91 1011.8
20260905092803 73 0 0.0 0.0 0.00 0.00 0.00 91 1011.8
20260905092704 73 0 0.0 0.0 0.00 0.00 0.00 91 1011.8
20260905092604 73 0 0.0 0.0 0.00 0.00 0.00 91 1011.8
20260905092503 73 0 0.0 0.0 0.00 0.00 0.00 91 1011.8
20260905092403 73 0 0.0 0.0 0.00 0.00 0.00 91 1011.8
20260905092306 73 0 0.0 0.0 0.00 0.00 0.00 91 1011.8
20260905092203 73 0 0.0 0.0 0.00 0.00 0.00 91 1011.8
20260905092103 73 0 0.0 0.0 0.00 0.00 0.00 91 1011.8
20260905092018 73 0 0.0 0.0 0.00 0.00 0.00 91 1011.8
20260905092003 73 0 0.0 0.0 0.00 0.00 0.00 92 1011.8
20260905091904 73 0 0.0 0.0 0.00 0.00 0.00 91 1011.7
20260905091817 73 0 0.0 0.0 0.00 0.00 0.00 91 1011.7
20260905091703 73 0 0.0 0.0 0.00 0.00 0.00 91 1011.7
20260905091503 73 0 0.0 0.0 0.00 0.00 0.00 91 1011.7
20260905091403 73 0 0.0 0.0 0.00 0.00 0.00 92 1011.7
20260905091204 73 0 0.0 0.0 0.00 0.00 0.00 91 1011.7
20260905091104 74 0 0.0 0.0 0.00 0.00 0.00 91 1011.7
20260905091003 73 0 0.0 0.0 0.00 0.00 0.00 91 1011.7
20260905090903 74 0 0.0 0.0 0.00 0.00 0.00 91 1011.7
20260905090804 73 0 0.0 0.0 0.00 0.00 0.00 91 1011.7
20260905090703 74 0 0.0 0.0 0.00 0.00 0.00 91 1011.7
20260905090604 74 0 0.0 0.0 0.00 0.00 0.00 91 1011.8
20260905090503 74 0 0.0 0.0 0.00 0.00 0.00 91 1011.7
20260905090403 74 0 0.0 0.0 0.00 0.00 0.00 91 1011.7
20260905090303 74 0 0.0 0.0 0.00 0.00 0.00 91 1011.8
20260905090203 74 0 0.0 0.0 0.00 0.00 0.00 91 1011.8
20260905090103 74 0 0.0 0.0 0.00 0.00 0.00 91 1011.7
20260905090003 74 0 0.0 0.0 0.00 0.00 0.00 91 1011.7
20260905085903 74 0 0.0 0.0 0.00 0.00 0.00 91 1011.7
20260905085804 74 0 0.0 0.0 0.00 0.00 0.00 91 1011.8
20260905085604 74 0 0.0 0.0 0.00 0.00 0.00 91 1011.8
20260905085504 74 0 0.0 0.0 0.00 0.00 0.00 91 1011.8
20260905085403 74 0 0.0 0.0 0.00 0.00 0.00 91 1011.8
20260905085305 74 0 0.0 0.0 0.00 0.00 0.00 91 1011.8
20260905085103 74 0 0.0 0.0 0.00 0.00 0.00 91 1011.8
20260905085004 74 0 0.0 0.0 0.00 0.00 0.00 91 1011.9
20260905084904 74 0 0.0 0.0 0.00 0.00 0.00 91 1011.9
20260905084817 74 0 0.0 0.0 0.00 0.00 0.00 91 1011.8
20260905084718 74 0 0.0 0.0 0.00 0.00 0.00 91 1011.8
20260905084403 74 0 0.0 0.0 0.00 0.00 0.00 91 1011.8
20260905084304 74 0 0.0 0.0 0.00 0.00 0.00 91 1011.9
20260905084203 74 0 0.0 0.0 0.00 0.00 0.00 91 1011.9
20260905084103 74 0 0.0 0.0 0.00 0.00 0.00 91 1011.9
20260905084004 74 0 0.0 0.0 0.00 0.00 0.00 91 1012.0
20260905083803 74 0 0.0 0.0 0.00 0.00 0.00 91 1011.9
20260905083703 74 0 0.0 0.0 0.00 0.00 0.00 91 1011.9
20260905083504 74 0 0.0 0.0 0.00 0.00 0.00 91 1011.9
20260905083404 74 0 0.0 0.0 0.00 0.00 0.00 90 1011.9
20260905083303 74 0 0.0 0.0 0.00 0.00 0.00 90 1011.9
20260905083203 74 0 0.0 0.0 0.00 0.00 0.00 90 1011.9
20260905083103 74 0 0.0 0.0 0.00 0.00 0.00 90 1011.9
20260905083003 74 0 0.0 0.0 0.00 0.00 0.00 90 1011.9
20260905082904 74 0 0.0 0.0 0.00 0.00 0.00 90 1011.9
20260905082803 74 0 0.0 0.0 0.00 0.00 0.00 90 1011.9
20260905082703 74 0 0.0 0.0 0.00 0.00 0.00 90 1011.9
20260905082603 74 0 0.0 0.0 0.00 0.00 0.00 90 1011.9
20260905082504 74 0 0.0 0.0 0.00 0.00 0.00 90 1011.9
20260905082419 74 0 0.0 0.0 0.00 0.00 0.00 90 1011.9
20260905082306 74 0 0.0 0.0 0.00 0.00 0.00 90 1012.0
20260905082216 74 0 0.0 0.0 0.00 0.00 0.00 90 1012.0
20260905082119 74 0 0.0 0.0 0.00 0.00 0.00 90 1012.0
20260905081803 74 0 0.0 0.0 0.00 0.00 0.00 90 1012.0
20260905081704 74 0 0.0 0.0 0.00 0.00 0.00 90 1012.0
20260905081603 74 0 0.0 0.0 0.00 0.00 0.00 90 1012.0
20260905081504 74 0 0.0 0.0 0.00 0.00 0.00 90 1012.0
20260905081404 74 0 0.0 0.0 0.00 0.00 0.00 90 1012.0
20260905081303 74 0 0.0 0.0 0.00 0.00 0.00 90 1012.0
20260905081203 74 0 0.0 0.0 0.00 0.00 0.00 90 1011.9
20260905081103 74 0 0.0 0.0 0.00 0.00 0.00 90 1011.9
20260905081003 74 0 0.0 0.0 0.00 0.00 0.00 90 1011.9
20260905080903 74 0 0.0 0.0 0.00 0.00 0.00 90 1011.8
20260905080804 74 0 0.0 0.0 0.00 0.00 0.00 90 1011.8
20260905080703 74 0 0.0 0.0 0.00 0.00 0.00 90 1011.8
20260905080503 74 0 0.0 0.0 0.00 0.00 0.00 90 1011.8
20260905080404 74 0 0.0 0.0 0.00 0.00 0.00 90 1011.9
20260905080304 74 0 0.0 0.0 0.00 0.00 0.00 90 1011.9
20260905080203 74 0 0.0 0.0 0.00 0.00 0.00 90 1011.9
20260905075903 74 0 0.0 0.0 0.00 0.00 0.00 90 1011.8
20260905075804 74 0 0.0 0.0 0.00 0.00 0.00 90 1011.8
20260905075703 74 0 0.0 0.0 0.00 0.00 0.00 90 1011.8
20260905075603 74 0 0.0 0.0 0.00 0.00 0.00 90 1011.8
20260905075403 74 0 0.0 0.0 0.00 0.00 0.00 90 1011.7
20260905075318 74 0 0.0 0.0 0.00 0.00 0.00 90 1011.7
20260905075306 74 0 0.0 0.0 0.00 0.00 0.00 90 1011.8
20260905075203 74 0 0.0 0.0 0.00 0.00 0.00 90 1011.8
20260905075004 74 0 0.0 0.0 0.00 0.00 0.00 90 1011.7
20260905074903 75 0 0.0 0.0 0.00 0.00 0.00 90 1011.8
20260905074804 75 0 0.0 0.0 0.00 0.00 0.00 90 1011.7
20260905074703 75 0 0.0 0.0 0.00 0.00 0.00 90 1011.7
20260905074603 75 0 0.0 0.0 0.00 0.00 0.00 89 1011.7
20260905074503 75 0 0.0 0.0 0.00 0.00 0.00 89 1011.7
20260905074404 75 0 0.0 0.0 0.00 0.00 0.00 89 1011.7
20260905074303 75 0 0.0 0.0 0.00 0.00 0.00 89 1011.7
20260905074203 75 0 0.0 0.0 0.00 0.00 0.00 89 1011.7
20260905074104 75 0 0.0 0.0 0.00 0.00 0.00 89 1011.7
20260905074003 75 0 0.0 0.0 0.00 0.00 0.00 89 1011.7
20260905073903 75 0 0.0 0.0 0.00 0.00 0.00 89 1011.7
20260905073804 75 0 0.0 0.0 0.00 0.00 0.00 89 1011.8
20260905073704 75 0 0.0 0.0 0.00 0.00 0.00 89 1011.8
20260905073603 75 0 0.0 0.0 0.00 0.00 0.00 89 1011.8
20260905073503 75 0 0.0 0.0 0.00 0.00 0.00 89 1011.8
20260905073404 75 0 0.0 0.0 0.00 0.00 0.00 89 1011.8
20260905073303 75 0 0.0 0.0 0.00 0.00 0.00 89 1011.9
20260905073203 75 0 0.0 0.0 0.00 0.00 0.00 89 1011.9
20260905073103 75 0 0.0 0.0 0.00 0.00 0.00 89 1011.9
20260905073017 75 0 0.0 0.0 0.00 0.00 0.00 89 1012.0
20260905072703 75 0 0.0 0.0 0.00 0.00 0.00 89 1011.9
20260905072603 75 0 0.0 0.0 0.00 0.00 0.00 89 1011.9
20260905072504 75 0 0.0 0.0 0.00 0.00 0.00 89 1011.9
20260905072403 75 0 0.0 0.0 0.00 0.00 0.00 89 1011.9
20260905072306 75 0 0.0 0.0 0.00 0.00 0.00 89 1012.0
20260905072204 75 0 0.0 0.0 0.00 0.00 0.00 89 1011.9
20260905072104 75 0 0.0 0.0 0.00 0.00 0.00 89 1011.9
20260905072003 75 0 0.0 0.0 0.00 0.00 0.00 89 1011.9
20260905071904 75 0 0.0 0.0 0.00 0.00 0.00 89 1011.9
20260905071803 75 0 0.0 0.0 0.00 0.00 0.00 89 1011.9
20260905071703 75 0 0.0 0.0 0.00 0.00 0.00 89 1012.0
20260905071603 75 0 0.0 0.0 0.00 0.00 0.00 89 1012.0
20260905071503 75 0 0.0 0.0 0.00 0.00 0.00 89 1012.0
20260905071403 75 0 0.0 0.0 0.00 0.00 0.00 89 1012.0
20260905071304 75 0 0.0 0.0 0.00 0.00 0.00 89 1012.1
20260905071203 75 0 0.0 0.0 0.00 0.00 0.00 89 1012.1
20260905071103 75 0 0.0 0.0 0.00 0.00 0.00 89 1012.1
20260905071003 75 0 0.0 0.0 0.00 0.00 0.00 89 1012.1
20260905070904 75 0 0.0 0.0 0.00 0.00 0.00 89 1012.0
20260905070803 75 0 0.0 0.0 0.00 0.00 0.00 89 1012.0
20260905070703 75 0 0.0 0.0 0.00 0.00 0.00 89 1012.1
20260905070603 75 0 0.0 0.0 0.00 0.00 0.00 89 1012.1
20260905070303 75 0 0.0 0.0 0.00 0.00 0.00 89 1012.0
20260905070203 75 0 0.0 0.0 0.00 0.00 0.00 89 1012.0
20260905070104 75 0 0.0 0.0 0.00 0.00 0.00 89 1012.0
20260905065904 75 0 0.0 0.0 0.00 0.00 0.00 88 1012.0
20260905065803 75 0 0.0 0.0 0.00 0.00 0.00 88 1012.0
20260905065604 75 0 0.0 0.0 0.00 0.00 0.00 89 1012.0
20260905065504 76 0 0.0 0.0 0.00 0.00 0.00 89 1012.1
20260905065403 76 0 0.0 0.0 0.00 0.00 0.00 89 1012.1
20260905065306 76 0 0.0 0.0 0.00 0.00 0.00 89 1012.1
20260905065203 76 0 0.0 0.0 0.00 0.00 0.00 88 1012.2
20260905065103 76 0 0.0 0.0 0.00 0.00 0.00 88 1012.2
20260905065004 76 0 0.0 0.0 0.00 0.00 0.00 88 1012.2
20260905064903 76 0 0.0 0.0 0.00 0.00 0.00 88 1012.2
20260905064803 76 0 0.0 0.0 0.00 0.00 0.00 88 1012.2
20260905064504 76 0 0.0 0.0 0.00 0.00 0.00 88 1012.1
20260905064404 76 0 0.0 0.0 0.00 0.00 0.00 88 1012.1
20260905064203 76 0 0.0 0.0 0.00 0.00 0.00 88 1012.0
20260905064104 76 0 0.0 0.0 0.00 0.00 0.00 88 1012.1
20260905063803 76 0 0.0 0.0 0.00 0.00 0.00 88 1012.1
20260905063703 76 0 0.0 0.0 0.00 0.00 0.00 88 1012.1
20260905063603 76 0 0.0 0.0 0.00 0.00 0.00 88 1012.1
20260905063403 76 0 0.0 0.0 0.00 0.00 0.00 88 1012.1
20260905063304 76 0 0.0 0.0 0.00 0.00 0.00 88 1012.1
20260905063204 76 0 0.0 0.0 0.00 0.00 0.00 88 1012.1
20260905063004 76 0 0.0 0.0 0.00 0.00 0.00 88 1012.0
20260905062904 76 0 0.0 0.0 0.00 0.00 0.00 88 1012.1
20260905062818 76 0 0.0 0.0 0.00 0.00 0.00 88 1012.1
20260905062803 76 0 0.0 0.0 0.00 0.00 0.00 88 1012.0
20260905062703 76 0 0.0 0.0 0.00 0.00 0.00 88 1012.0
20260905062403 76 0 0.0 0.0 0.00 0.00 0.00 88 1012.1
20260905062305 76 0 0.0 0.0 0.00 0.00 0.00 88 1012.2
20260905062204 76 0 0.0 0.0 0.00 0.00 0.00 88 1012.2
20260905062103 76 0 0.0 0.0 0.00 0.00 0.00 88 1012.2
20260905061904 76 0 0.0 0.0 0.00 0.00 0.00 88 1012.2
20260905061803 76 0 0.0 0.0 0.00 0.00 0.00 88 1012.2
20260905061504 76 0 0.0 0.0 0.00 0.00 0.00 88 1012.2
20260905061404 76 0 0.0 0.0 0.00 0.00 0.00 88 1012.2
20260905061303 76 0 0.0 0.0 0.00 0.00 0.00 88 1012.2
20260905061204 76 0 0.0 0.0 0.00 0.00 0.00 88 1012.2
20260905061003 76 0 0.0 0.0 0.00 0.00 0.00 88 1012.3
20260905060903 76 0 0.0 0.0 0.00 0.00 0.00 88 1012.3
20260905060803 76 0 0.0 0.0 0.00 0.00 0.00 88 1012.3
20260905060704 76 0 0.0 0.0 0.00 0.00 0.00 88 1012.3
20260905060604 76 0 0.0 0.0 0.00 0.00 0.00 88 1012.4
20260905060504 76 0 0.0 0.0 0.00 0.00 0.00 87 1012.3
20260905060404 76 0 0.0 0.0 0.00 0.00 0.00 87 1012.3
20260905060303 76 0 0.0 0.0 0.00 0.00 0.00 87 1012.3
20260905060204 76 0 0.0 0.0 0.00 0.00 0.00 87 1012.4
20260905060103 76 0 0.0 0.0 0.00 0.00 0.00 87 1012.4
20260905060003 76 0 0.0 0.0 0.00 0.00 0.00 87 1012.3
20260905055904 76 0 0.0 0.0 0.00 0.00 0.00 87 1012.3
20260905055818 76 0 0.0 0.0 0.00 0.00 0.00 87 1012.4
20260905055703 76 0 0.0 0.0 0.00 0.00 0.00 87 1012.4
20260905055504 76 0 0.0 0.0 0.00 0.00 0.00 87 1012.4
20260905055403 76 0 0.0 0.0 0.00 0.00 0.00 87 1012.4
20260905055217 76 0 0.0 0.0 0.00 0.00 0.00 87 1012.4
20260905055204 77 0 0.0 0.0 0.00 0.00 0.00 87 1012.4
20260905055104 77 0 0.0 0.0 0.00 0.00 0.00 87 1012.4
20260905054903 77 0 0.0 0.0 0.00 0.00 0.00 87 1012.5
20260905054803 77 0 0.0 0.0 0.00 0.00 0.00 87 1012.5
20260905054704 77 0 0.0 0.0 0.00 0.00 0.00 87 1012.5
20260905054617 77 0 0.0 0.0 0.00 0.00 0.00 87 1012.5
20260905054503 77 0 0.0 0.0 0.00 0.00 0.00 87 1012.5
20260905054304 77 0 0.0 0.0 0.00 0.00 0.00 87 1012.5
20260905054204 77 0 0.0 0.0 0.00 0.00 0.00 87 1012.4
20260905054003 77 0 0.0 0.0 0.00 0.00 0.00 87 1012.4
20260905053903 77 0 0.0 0.0 0.00 0.00 0.00 87 1012.4
20260905053803 77 0 0.0 0.0 0.00 0.00 0.00 87 1012.4
20260905053704 77 0 0.0 0.0 0.00 0.00 0.00 86 1012.4
20260905053617 77 0 0.0 0.0 0.00 0.00 0.00 86 1012.4
20260905053503 77 0 0.0 0.0 0.00 0.00 0.00 86 1012.3
20260905053418 77 0 0.0 0.0 0.00 0.00 0.00 86 1012.4
20260905053304 77 0 0.0 0.0 0.00 0.00 0.00 86 1012.4
20260905053103 77 0 0.0 0.0 0.00 0.00 0.00 86 1012.3
20260905053003 77 0 0.0 0.0 0.00 0.00 0.00 86 1012.3
20260905052903 77 0 0.0 0.0 0.00 0.00 0.00 86 1012.4
20260905052603 77 0 0.0 0.0 0.00 0.00 0.00 86 1012.3
20260905052503 77 0 0.0 0.0 0.00 0.00 0.00 86 1012.3
20260905052403 77 0 0.0 0.0 0.00 0.00 0.00 86 1012.3
20260905052306 77 0 0.0 0.0 0.00 0.00 0.00 86 1012.3
20260905052204 77 0 0.0 0.0 0.00 0.00 0.00 86 1012.3
20260905052003 78 0 0.0 0.0 0.00 0.00 0.00 86 1012.2
20260905051904 78 0 0.0 0.0 0.00 0.00 0.00 86 1012.3
20260905051804 78 0 0.0 0.0 0.00 0.00 0.00 86 1012.3
20260905051704 78 0 0.0 0.0 0.00 0.00 0.00 86 1012.2
20260905051604 78 0 0.0 0.0 0.00 0.00 0.00 86 1012.2
20260905051503 78 0 0.0 0.0 0.00 0.00 0.00 86 1012.2
20260905051418 78 0 0.0 0.0 0.00 0.00 0.00 86 1012.1
20260905051303 78 0 0.0 0.0 0.00 0.00 0.00 86 1012.1
20260905051103 78 0 0.0 0.0 0.00 0.00 0.00 86 1012.1
20260905051004 78 0 0.0 0.0 0.00 0.00 0.00 86 1012.1
20260905050903 78 0 0.0 0.0 0.00 0.00 0.00 85 1012.2
20260905050803 78 0 0.0 0.0 0.00 0.00 0.00 85 1012.2
20260905050704 78 0 0.0 0.0 0.00 0.00 0.00 85 1012.2
20260905050603 78 0 0.0 0.0 0.00 0.00 0.00 85 1012.3
20260905050504 78 0 0.0 0.0 0.00 0.00 0.00 85 1012.3
20260905050403 78 0 0.0 0.0 0.00 0.00 0.00 85 1012.2
20260905050304 78 0 0.0 0.0 0.00 0.00 0.00 85 1012.3
20260905050204 78 0 0.0 0.0 0.00 0.00 0.00 85 1012.3
20260905050103 78 0 0.0 0.0 0.00 0.00 0.00 85 1012.3
20260905050003 78 0 0.0 0.0 0.00 0.00 0.00 85 1012.3
20260905045903 78 0 0.0 0.0 0.00 0.00 0.00 85 1012.3
20260905045803 78 0 0.0 0.0 0.00 0.00 0.00 84 1012.3
20260905045603 78 0 0.0 0.0 0.00 0.00 0.00 84 1012.3
20260905045504 78 0 0.0 0.0 0.00 0.00 0.00 84 1012.3
20260905045403 78 0 0.0 0.0 0.00 0.00 0.00 84 1012.3
20260905045305 78 0 0.0 0.0 0.00 0.00 0.00 84 1012.3
20260905045204 78 0 0.0 0.0 0.00 0.00 0.00 84 1012.3
20260905045103 78 0 0.0 0.0 0.00 0.00 0.00 84 1012.3
20260905045004 78 0 0.0 0.0 0.00 0.00 0.00 85 1012.4
20260905044903 78 0 0.0 0.0 0.00 0.00 0.00 84 1012.3
20260905044803 78 0 0.0 0.0 0.00 0.00 0.00 84 1012.3
20260905044703 78 0 0.0 0.0 0.00 0.00 0.00 84 1012.3
20260905044603 78 0 0.0 0.0 0.00 0.00 0.00 84 1012.3
20260905044503 78 0 0.0 0.0 0.00 0.00 0.00 84 1012.3
20260905044404 78 0 0.0 0.0 0.00 0.00 0.00 84 1012.2
20260905044303 78 0 0.0 0.0 0.00 0.00 0.00 84 1012.2
20260905044203 78 0 0.0 0.0 0.00 0.00 0.00 84 1012.2
20260905044104 78 0 0.0 0.0 0.00 0.00 0.00 84 1012.2
20260905044003 78 0 0.0 0.0 0.00 0.00 0.00 84 1012.2
20260905043803 78 0 0.0 0.0 0.00 0.00 0.00 84 1012.2
20260905043703 78 0 0.0 0.0 0.00 0.00 0.00 84 1012.2
20260905043617 78 0 0.0 0.0 0.00 0.00 0.00 84 1012.2
20260905043603 78 0 0.0 0.0 0.00 0.00 0.00 84 1012.1
20260905043503 78 0 0.0 0.0 0.00 0.00 0.00 84 1012.1
20260905043304 79 0 0.0 0.0 0.00 0.00 0.00 83 1012.1
20260905043203 79 0 0.0 0.0 0.00 0.00 0.00 83 1012.1
20260905043103 79 0 0.0 0.0 0.00 0.00 0.00 83 1012.2
20260905043003 79 0 0.0 0.0 0.00 0.00 0.00 83 1012.2
20260905042903 79 0 0.0 0.0 0.00 0.00 0.00 83 1012.2
20260905042803 79 0 0.0 0.0 0.00 0.00 0.00 83 1012.2
20260905042703 79 0 0.0 0.0 0.00 0.00 0.00 83 1012.2
20260905042604 79 0 0.0 0.0 0.00 0.00 0.00 83 1012.3
20260905042504 79 0 0.0 0.0 0.00 0.00 0.00 83 1012.3
20260905042403 79 0 0.0 0.0 0.00 0.00 0.00 83 1012.3
20260905042306 79 0 0.0 0.0 0.00 0.00 0.00 82 1012.4
20260905042203 79 0 0.0 0.0 0.00 0.00 0.00 82 1012.4
20260905042103 79 0 0.0 0.0 0.00 0.00 0.00 82 1012.5
20260905042003 79 0 0.0 0.0 0.00 0.00 0.00 82 1012.5
20260905041903 79 0 0.0 0.0 0.00 0.00 0.00 83 1012.5
20260905041804 79 0 0.0 0.0 0.00 0.00 0.00 82 1012.5
20260905041703 79 0 0.0 0.0 0.00 0.00 0.00 82 1012.5
20260905041603 79 0 0.0 0.0 0.00 0.00 0.00 83 1012.5
20260905041504 79 0 0.0 0.0 0.00 0.00 0.00 83 1012.5
20260905041403 79 0 0.0 0.0 0.00 0.00 0.00 82 1012.5
20260905041303 79 0 0.0 0.0 0.00 0.00 0.00 82 1012.5
20260905041204 79 0 0.0 0.0 0.00 0.00 0.00 82 1012.5
20260905041103 79 0 0.0 0.0 0.00 0.00 0.00 82 1012.5
20260905041004 79 0 0.0 0.0 0.00 0.00 0.00 82 1012.5
20260905040904 79 0 0.0 0.0 0.00 0.00 0.00 82 1012.4
20260905040803 79 0 0.0 0.0 0.00 0.00 0.00 82 1012.5
20260905040703 79 0 0.0 0.0 0.00 0.00 0.00 82 1012.5
20260905040603 79 0 0.0 0.0 0.00 0.00 0.00 82 1012.5
20260905040404 80 0 0.0 0.0 0.00 0.00 0.00 82 1012.5
20260905040303 80 0 0.0 0.0 0.00 0.00 0.00 82 1012.5
20260905040204 80 0 0.0 0.0 0.00 0.00 0.00 82 1012.5
20260905040104 80 0 0.0 0.0 0.00 0.00 0.00 82 1012.4
20260905040003 80 0 0.0 0.0 0.00 0.00 0.00 82 1012.4
20260905035904 80 0 0.0 0.0 0.00 0.00 0.00 81 1012.4
20260905035803 80 0 0.0 0.0 0.00 0.00 0.00 81 1012.4
20260905035703 80 0 0.0 0.0 0.00 0.00 0.00 81 1012.4
20260905035603 80 0 0.0 0.0 0.00 0.00 0.00 81 1012.4
20260905035503 80 0 0.0 0.0 0.00 0.00 0.00 81 1012.4
20260905035404 80 0 0.0 0.0 0.00 0.00 0.00 81 1012.4
20260905035306 80 0 0.0 0.0 0.00 0.00 0.00 81 1012.5
20260905035217 80 0 0.0 0.0 0.00 0.00 0.00 81 1012.5
20260905035103 80 0 0.0 0.0 0.00 0.00 0.00 81 1012.4
20260905034804 80 0 0.0 0.0 0.00 0.00 0.00 81 1012.5
20260905034718 80 0 0.0 0.0 0.00 0.00 0.00 81 1012.5
20260905034703 80 0 0.0 0.0 0.00 0.00 0.00 81 1012.6
20260905034603 80 0 0.0 0.0 0.00 0.00 0.00 81 1012.6
20260905034404 80 0 0.0 0.0 0.00 0.00 0.00 80 1012.6
20260905034303 80 0 0.0 0.0 0.00 0.00 0.00 80 1012.6
20260905034203 80 0 0.0 0.0 0.00 0.00 0.00 80 1012.7
20260905034103 80 0 0.0 0.0 0.00 0.00 0.00 80 1012.7
20260905034004 80 0 0.0 0.0 0.00 0.00 0.00 80 1012.7
20260905033903 80 0 0.0 0.0 0.00 0.00 0.00 80 1012.7
20260905033804 80 0 0.0 0.0 0.00 0.00 0.00 80 1012.7
20260905033703 80 286 0.0 1.0 0.00 0.00 0.00 80 1012.7
20260905033604 80 286 0.0 1.0 0.00 0.00 0.00 80 1012.7
20260905033504 80 286 0.0 1.0 0.00 0.00 0.00 80 1012.7
20260905033404 80 289 0.0 1.0 0.00 0.00 0.00 80 1012.7
20260905033203 80 289 0.0 1.0 0.00 0.00 0.00 80 1012.7
20260905033103 80 289 0.0 1.0 0.00 0.00 0.00 80 1012.7
20260905033004 80 289 0.0 1.0 0.00 0.00 0.00 80 1012.7
20260905032903 81 289 0.0 1.0 0.00 0.00 0.00 80 1012.8
20260905032704 81 289 0.0 1.0 0.00 0.00 0.00 80 1012.8
20260905032604 81 290 0.0 1.0 0.00 0.00 0.00 80 1012.8
20260905032504 81 291 0.0 1.0 0.00 0.00 0.00 80 1012.8
20260905032404 81 292 0.0 1.0 0.00 0.00 0.00 80 1012.8
20260905032306 81 292 0.0 1.0 0.00 0.00 0.00 80 1012.8
20260905032204 81 292 0.0 1.0 0.00 0.00 0.00 80 1012.8
20260905032004 81 292 0.0 1.0 0.00 0.00 0.00 80 1012.8
20260905031903 81 292 0.0 1.0 0.00 0.00 0.00 80 1012.8
20260905031703 81 292 0.0 1.0 0.00 0.00 0.00 80 1012.8
20260905031604 81 292 0.0 1.0 0.00 0.00 0.00 79 1012.8
20260905031503 81 292 0.0 1.0 0.00 0.00 0.00 79 1012.8
20260905031403 81 292 0.0 1.0 0.00 0.00 0.00 79 1012.9
20260905031303 81 0 0.0 0.0 0.00 0.00 0.00 79 1012.9
20260905031203 81 0 0.0 0.0 0.00 0.00 0.00 79 1012.8
20260905031104 81 0 0.0 0.0 0.00 0.00 0.00 79 1012.9
20260905031003 81 292 0.0 1.0 0.00 0.00 0.00 79 1012.9
20260905030904 81 292 0.0 1.0 0.00 0.00 0.00 79 1012.9
20260905030803 81 292 0.0 1.0 0.00 0.00 0.00 79 1012.9
20260905030704 81 292 0.0 1.0 0.00 0.00 0.00 79 1012.9
20260905030603 81 292 0.0 1.0 0.00 0.00 0.00 79 1012.9
20260905030504 81 292 0.0 1.0 0.00 0.00 0.00 79 1012.9
20260905030304 82 292 0.0 1.0 0.00 0.00 0.00 79 1012.8
20260905030203 82 292 0.0 1.0 0.00 0.00 0.00 79 1012.8
20260905030004 82 292 0.0 1.0 0.00 0.00 0.00 79 1012.8
20260905025803 82 292 0.0 1.0 0.00 0.00 0.00 79 1012.8
20260905025703 82 292 0.0 1.0 0.00 0.00 0.00 79 1012.8
20260905025603 82 292 0.0 1.0 0.00 0.00 0.00 79 1012.8
20260905025503 82 292 0.0 1.0 0.00 0.00 0.00 79 1012.8
20260905025306 82 0 0.0 0.0 0.00 0.00 0.00 79 1012.8
20260905025204 82 292 0.0 1.0 0.00 0.00 0.00 78 1012.8
20260905025103 82 292 0.0 1.0 0.00 0.00 0.00 78 1012.8
20260905025003 82 292 0.0 1.0 0.00 0.00 0.00 78 1012.8
20260905024803 82 292 0.0 1.0 0.00 0.00 0.00 78 1012.9
20260905024703 82 292 0.0 1.0 0.00 0.00 0.00 78 1012.9
20260905024604 82 292 1.0 1.0 0.00 0.00 0.00 78 1012.8
20260905024403 82 292 1.0 1.0 0.00 0.00 0.00 78 1012.8
20260905024303 82 292 1.0 1.0 0.00 0.00 0.00 78 1012.9
20260905024103 82 292 1.0 2.0 0.00 0.00 0.00 78 1012.8
20260905024003 82 292 1.0 2.0 0.00 0.00 0.00 78 1012.9
20260905023903 82 292 1.0 2.0 0.00 0.00 0.00 78 1012.9
20260905023803 82 292 1.0 2.0 0.00 0.00 0.00 78 1012.9
20260905023717 82 292 1.0 2.0 0.00 0.00 0.00 78 1012.9
20260905023603 82 292 1.0 2.0 0.00 0.00 0.00 78 1012.9
20260905023404 82 292 0.0 2.0 0.00 0.00 0.00 78 1012.9
20260905023304 82 292 0.0 2.0 0.00 0.00 0.00 77 1012.9
20260905023203 83 292 0.0 2.0 0.00 0.00 0.00 77 1012.9
20260905023104 83 291 0.0 2.0 0.00 0.00 0.00 77 1012.9
20260905023003 83 291 0.0 2.0 0.00 0.00 0.00 77 1012.9
20260905022904 83 291 0.0 1.0 0.00 0.00 0.00 77 1012.9
20260905022804 83 0 0.0 0.0 0.00 0.00 0.00 77 1012.9
20260905022703 83 0 0.0 0.0 0.00 0.00 0.00 77 1012.9
20260905022603 83 0 0.0 0.0 0.00 0.00 0.00 77 1012.9
20260905022504 83 0 0.0 0.0 0.00 0.00 0.00 77 1012.9
20260905022404 83 0 0.0 0.0 0.00 0.00 0.00 77 1012.9
20260905022306 83 0 0.0 0.0 0.00 0.00 0.00 77 1012.9
20260905022203 83 0 0.0 0.0 0.00 0.00 0.00 77 1012.9
20260905022103 83 0 0.0 0.0 0.00 0.00 0.00 77 1012.9
20260905022004 83 0 0.0 0.0 0.00 0.00 0.00 77 1012.9
20260905021903 83 0 0.0 0.0 0.00 0.00 0.00 77 1012.9
20260905021803 83 0 0.0 0.0 0.00 0.00 0.00 77 1012.9
20260905021605 83 291 0.0 1.0 0.00 0.00 0.00 77 1012.8
20260905021503 83 291 0.0 1.0 0.00 0.00 0.00 77 1012.8
20260905021404 83 291 0.0 1.0 0.00 0.00 0.00 77 1012.8
20260905021203 83 291 0.0 1.0 0.00 0.00 0.00 77 1012.7
20260905021103 83 291 0.0 1.0 0.00 0.00 0.00 77 1012.7
20260905020903 83 291 0.0 1.0 0.00 0.00 0.00 77 1012.8
20260905020803 83 291 0.0 1.0 0.00 0.00 0.00 77 1012.8
20260905020703 83 291 0.0 1.0 0.00 0.00 0.00 77 1012.8
20260905020618 83 291 0.0 1.0 0.00 0.00 0.00 77 1012.8
20260905020503 83 291 0.0 1.0 0.00 0.00 0.00 77 1012.8
20260905020304 83 291 0.0 1.0 0.00 0.00 0.00 77 1012.8
20260905020203 83 291 0.0 1.0 0.00 0.00 0.00 77 1012.8
20260905020103 83 291 0.0 1.0 0.00 0.00 0.00 77 1012.8
20260905020003 83 291 0.0 1.0 0.00 0.00 0.00 77 1012.8
20260905015903 83 291 0.0 1.0 0.00 0.00 0.00 77 1012.8
20260905015804 83 291 0.0 1.0 0.00 0.00 0.00 77 1012.8
20260905015703 83 291 1.0 1.0 0.00 0.00 0.00 77 1012.8
20260905015503 83 291 0.0 1.0 0.00 0.00 0.00 77 1012.8
20260905015403 83 291 0.0 1.0 0.00 0.00 0.00 77 1012.8
20260905015306 83 291 0.0 1.0 0.00 0.00 0.00 77 1012.8
20260905015203 83 291 0.0 1.0 0.00 0.00 0.00 78 1012.8
20260905015119 83 291 0.0 1.0 0.00 0.00 0.00 78 1012.8
20260905015103 83 291 0.0 1.0 0.00 0.00 0.00 78 1012.7
20260905015003 83 291 0.0 1.0 0.00 0.00 0.00 77 1012.7
20260905014816 83 291 0.0 1.0 0.00 0.00 0.00 77 1012.6
20260905014803 83 291 0.0 1.0 0.00 0.00 0.00 76 1012.6
20260905014703 83 291 0.0 1.0 0.00 0.00 0.00 76 1012.6
20260905014503 83 291 0.0 1.0 0.00 0.00 0.00 75 1012.5
20260905014403 83 291 0.0 1.0 0.00 0.00 0.00 75 1012.5
20260905014304 83 291 0.0 1.0 0.00 0.00 0.00 75 1012.5
20260905014103 83 291 0.0 1.0 0.00 0.00 0.00 76 1012.5
20260905014003 83 0 0.0 0.0 0.00 0.00 0.00 76 1012.5
20260905013903 83 0 0.0 0.0 0.00 0.00 0.00 76 1012.5
20260905013803 83 0 0.0 0.0 0.00 0.00 0.00 76 1012.5
20260905013603 84 291 0.0 1.0 0.00 0.00 0.00 77 1012.5
20260905013503 84 291 0.0 1.0 0.00 0.00 0.00 76 1012.5
20260905013404 84 291 0.0 1.0 0.00 0.00 0.00 76 1012.5
20260905013303 84 291 0.0 1.0 0.00 0.00 0.00 76 1012.5
20260905013103 84 291 0.0 1.0 0.00 0.00 0.00 76 1012.5
20260905013004 84 291 0.0 1.0 0.00 0.00 0.00 76 1012.5
20260905012904 84 291 0.0 1.0 0.00 0.00 0.00 76 1012.5
20260905012703 84 291 0.0 1.0 0.00 0.00 0.00 75 1012.6
20260905012603 84 291 0.0 1.0 0.00 0.00 0.00 76 1012.6
20260905012403 84 291 0.0 1.0 0.00 0.00 0.00 76 1012.6
20260905012306 84 291 0.0 1.0 0.00 0.00 0.00 76 1012.6
20260905012203 84 291 0.0 1.0 0.00 0.00 0.00 77 1012.6
20260905012118 84 291 0.0 1.0 0.00 0.00 0.00 77 1012.6
20260905012003 84 291 0.0 1.0 0.00 0.00 0.00 77 1012.6
20260905011803 84 291 0.0 1.0 0.00 0.00 0.00 75 1012.6
20260905011704 84 291 0.0 1.0 0.00 0.00 0.00 75 1012.6
20260905011604 84 291 0.0 1.0 0.00 0.00 0.00 75 1012.6
20260905011503 84 291 0.0 1.0 0.00 0.00 0.00 75 1012.7
20260905011304 84 291 0.0 1.0 0.00 0.00 0.00 74 1012.6
20260905011204 84 291 0.0 1.0 0.00 0.00 0.00 74 1012.6
20260905011103 84 291 0.0 1.0 0.00 0.00 0.00 74 1012.6
20260905011017 84 291 0.0 1.0 0.00 0.00 0.00 74 1012.6
20260905011003 85 291 0.0 1.0 0.00 0.00 0.00 74 1012.6
20260905010904 85 291 0.0 1.0 0.00 0.00 0.00 74 1012.6
20260905010704 85 291 0.0 1.0 0.00 0.00 0.00 73 1012.6
20260905010604 85 291 0.0 1.0 0.00 0.00 0.00 73 1012.6
20260905010503 85 291 0.0 1.0 0.00 0.00 0.00 73 1012.6
20260905010303 85 291 0.0 1.0 0.00 0.00 0.00 73 1012.6
20260905010203 85 291 0.0 1.0 0.00 0.00 0.00 73 1012.6
20260905010104 85 291 0.0 1.0 0.00 0.00 0.00 73 1012.6
20260905010003 85 291 0.0 1.0 0.00 0.00 0.00 73 1012.6
20260905005903 85 291 0.0 1.0 0.00 0.00 0.00 73 1012.6
20260905005818 85 291 0.0 1.0 0.00 0.00 0.00 73 1012.6
20260905005704 85 291 0.0 1.0 0.00 0.00 0.00 73 1012.6
20260905005504 86 291 0.0 1.0 0.00 0.00 0.00 72 1012.6
20260905005403 86 0 0.0 0.0 0.00 0.00 0.00 72 1012.6
20260905005306 86 291 0.0 1.0 0.00 0.00 0.00 72 1012.6
20260905005204 86 291 0.0 1.0 0.00 0.00 0.00 72 1012.6
20260905005103 86 291 0.0 1.0 0.00 0.00 0.00 72 1012.6
20260905005003 86 291 0.0 1.0 0.00 0.00 0.00 72 1012.6
20260905004903 86 291 0.0 1.0 0.00 0.00 0.00 73 1012.5
20260905004703 86 291 0.0 1.0 0.00 0.00 0.00 72 1012.4
20260905004603 86 291 0.0 1.0 0.00 0.00 0.00 72 1012.4
20260905004503 86 291 0.0 1.0 0.00 0.00 0.00 72 1012.4
20260905004303 86 291 0.0 1.0 0.00 0.00 0.00 72 1012.4
20260905004203 86 291 0.0 1.0 0.00 0.00 0.00 72 1012.3
20260905004103 86 291 0.0 1.0 0.00 0.00 0.00 72 1012.3
20260905004004 86 291 0.0 1.0 0.00 0.00 0.00 71 1012.3
20260905003903 87 291 0.0 1.0 0.00 0.00 0.00 70 1012.4
20260905003803 87 291 0.0 1.0 0.00 0.00 0.00 70 1012.4
20260905003704 87 291 0.0 1.0 0.00 0.00 0.00 70 1012.4
20260905003604 87 0 0.0 0.0 0.00 0.00 0.00 70 1012.4
20260905003503 87 0 0.0 0.0 0.00 0.00 0.00 70 1012.4
20260905003303 87 0 0.0 0.0 0.00 0.00 0.00 70 1012.4
20260905003218 87 0 0.0 0.0 0.00 0.00 0.00 71 1012.4
20260905003203 87 0 0.0 0.0 0.00 0.00 0.00 70 1012.4
20260905003103 87 0 0.0 0.0 0.00 0.00 0.00 70 1012.4
20260905002903 87 0 0.0 0.0 0.00 0.00 0.00 70 1012.4
20260905002804 87 0 0.0 0.0 0.00 0.00 0.00 70 1012.4
20260905002617 87 291 0.0 2.0 0.00 0.00 0.00 70 1012.4
20260905002604 87 291 0.0 2.0 0.00 0.00 0.00 69 1012.4
20260905002503 87 291 0.0 2.0 0.00 0.00 0.00 69 1012.4
20260905002306 88 291 0.0 2.0 0.00 0.00 0.00 68 1012.4
20260905002204 88 291 0.0 2.0 0.00 0.00 0.00 68 1012.4
20260905002104 88 291 0.0 2.0 0.00 0.00 0.00 67 1012.3
20260905002003 88 291 0.0 2.0 0.00 0.00 0.00 67 1012.3
20260905001903 88 291 0.0 2.0 0.00 0.00 0.00 67 1012.3
20260905001803 88 291 0.0 2.0 0.00 0.00 0.00 67 1012.3
20260905001703 88 291 0.0 2.0 0.00 0.00 0.00 67 1012.3
20260905001603 88 291 0.0 1.0 0.00 0.00 0.00 67 1012.3
20260905001503 88 291 0.0 1.0 0.00 0.00 0.00 67 1012.3
20260905001403 88 291 0.0 1.0 0.00 0.00 0.00 67 1012.3
20260905001303 88 291 0.0 1.0 0.00 0.00 0.00 66 1012.3
20260905001203 88 291 0.0 1.0 0.00 0.00 0.00 67 1012.3
20260905001103 88 291 0.0 1.0 0.00 0.00 0.00 66 1012.3
20260905001003 89 291 0.0 1.0 0.00 0.00 0.00 67 1012.3
20260905000803 89 291 0.0 1.0 0.00 0.00 0.00 65 1012.3
20260905000703 89 291 0.0 1.0 0.00 0.00 0.00 65 1012.3
20260905000604 89 291 0.0 1.0 0.00 0.00 0.00 65 1012.4
20260905000503 89 0 0.0 0.0 0.00 0.00 0.00 65 1012.4
20260905000303 89 291 0.0 1.0 0.00 0.00 0.00 65 1012.3
20260905000204 89 291 0.0 1.0 0.00 0.00 0.00 65 1012.3
20260905000104 89 291 0.0 1.0 0.00 0.00 0.00 66 1012.3
20260905000003 89 291 0.0 1.0 0.00 0.00 0.00 66 1012.3
20260904235903 89 291 0.0 1.0 0.00 0.00 0.00 66 1012.3
20260904235804 90 291 0.0 1.0 0.00 0.00 0.00 66 1012.3
20260904235704 90 291 0.0 1.0 0.00 0.00 0.00 64 1012.3
20260904235604 90 291 0.0 1.0 0.00 0.00 0.00 63 1012.4
20260904235503 90 291 0.0 1.0 0.00 0.00 0.00 63 1012.4
20260904235403 90 291 0.0 1.0 0.00 0.00 0.00 62 1012.4
20260904235306 90 291 0.0 1.0 0.00 0.00 0.00 62 1012.4
20260904235003 90 291 0.0 1.0 0.00 0.00 0.00 63 1012.4
20260904234904 90 291 0.0 1.0 0.00 0.00 0.00 62 1012.4
20260904234704 90 291 0.0 1.0 0.00 0.00 0.00 63 1012.4
20260904234603 90 291 0.0 1.0 0.00 0.00 0.00 63 1012.3
20260904234503 90 291 0.0 1.0 0.00 0.00 0.00 63 1012.2
20260904234403 90 291 0.0 1.0 0.00 0.00 0.00 62 1012.2
20260904234303 90 291 0.0 1.0 0.00 0.00 0.00 62 1012.2
20260904234203 90 291 0.0 1.0 0.00 0.00 0.00 62 1012.2
20260904234103 90 291 0.0 1.0 0.00 0.00 0.00 62 1012.2
20260904234003 91 291 0.0 2.0 0.00 0.00 0.00 61 1012.2
20260904233904 91 291 0.0 2.0 0.00 0.00 0.00 61 1012.2
20260904233803 91 290 0.0 2.0 0.00 0.00 0.00 61 1012.2
20260904233703 91 289 0.0 2.0 0.00 0.00 0.00 61 1012.1
20260904233603 91 288 0.0 2.0 0.00 0.00 0.00 61 1012.1
20260904233503 91 288 0.0 2.0 0.00 0.00 0.00 61 1012.0
20260904233403 91 288 0.0 2.0 0.00 0.00 0.00 60 1012.0
20260904233304 91 271 0.0 2.0 0.00 0.00 0.00 60 1012.0
20260904233204 91 249 0.0 2.0 0.00 0.00 0.00 60 1012.0
20260904233103 91 249 0.0 2.0 0.00 0.00 0.00 60 1012.0
20260904233016 91 237 0.0 2.0 0.00 0.00 0.00 60 1012.0
20260904233003 92 231 0.0 2.0 0.00 0.00 0.00 60 1012.0
20260904232904 91 283 0.0 3.0 0.00 0.00 0.00 60 1011.9
20260904232703 92 269 0.0 3.0 0.00 0.00 0.00 60 1011.9
20260904232603 92 258 1.0 3.0 0.00 0.00 0.00 60 1011.9
20260904232504 92 255 1.0 3.0 0.00 0.00 0.00 59 1011.9
20260904232403 92 258 1.0 3.0 0.00 0.00 0.00 59 1011.9
20260904232306 92 274 1.0 4.0 0.00 0.00 0.00 59 1011.9
20260904232204 92 287 1.0 4.0 0.00 0.00 0.00 59 1011.9
20260904232103 92 306 1.0 4.0 0.00 0.00 0.00 59 1011.9
20260904232004 92 303 1.0 4.0 0.00 0.00 0.00 58 1011.8
20260904231903 92 247 1.0 4.0 0.00 0.00 0.00 59 1011.9
20260904231804 92 203 1.0 4.0 0.00 0.00 0.00 58 1011.9
20260904231703 92 138 1.0 4.0 0.00 0.00 0.00 58 1011.9
20260904231604 92 118 1.0 4.0 0.00 0.00 0.00 58 1011.9
20260904231517 92 102 1.0 4.0 0.00 0.00 0.00 58 1011.9
20260904231503 92 103 1.0 4.0 0.00 0.00 0.00 58 1011.9
20260904231404 92 108 1.0 4.0 0.00 0.00 0.00 58 1011.9
20260904231203 92 116 1.0 4.0 0.00 0.00 0.00 58 1012.0
20260904231104 92 129 1.0 4.0 0.00 0.00 0.00 58 1011.9
20260904231018 92 121 1.0 4.0 0.00 0.00 0.00 58 1011.9
20260904231004 92 119 1.0 4.0 0.00 0.00 0.00 58 1011.9
20260904230904 92 114 1.0 4.0 0.00 0.00 0.00 58 1011.8
20260904230718 92 111 1.0 4.0 0.00 0.00 0.00 59 1011.9
20260904230703 92 110 1.0 4.0 0.00 0.00 0.00 59 1011.9
20260904230603 92 110 1.0 4.0 0.00 0.00 0.00 60 1011.8
20260904230403 92 107 1.0 4.0 0.00 0.00 0.00 62 1011.8
20260904230304 92 104 1.0 4.0 0.00 0.00 0.00 61 1011.8
20260904230204 92 101 1.0 4.0 0.00 0.00 0.00 63 1011.8
20260904230104 92 88 1.0 3.0 0.00 0.00 0.00 63 1011.7
20260904230003 92 88 0.0 2.0 0.00 0.00 0.00 63 1011.7
20260904225903 92 88 0.0 1.0 0.00 0.00 0.00 62 1011.6
20260904225804 93 88 0.0 1.0 0.00 0.00 0.00 61 1011.6
20260904225703 93 88 0.0 1.0 0.00 0.00 0.00 61 1011.6
20260904225603 93 88 0.0 1.0 0.00 0.00 0.00 61 1011.6
20260904225503 93 0 0.0 0.0 0.00 0.00 0.00 61 1011.6
20260904225403 93 0 0.0 0.0 0.00 0.00 0.00 60 1011.6
20260904225305 93 0 0.0 0.0 0.00 0.00 0.00 60 1011.6
20260904225203 93 0 0.0 0.0 0.00 0.00 0.00 59 1011.6
20260904225103 93 0 0.0 0.0 0.00 0.00 0.00 60 1011.6
20260904225004 94 88 0.0 1.0 0.00 0.00 0.00 59 1011.6
20260904224904 94 88 0.0 1.0 0.00 0.00 0.00 59 1011.5
20260904224803 94 88 0.0 1.0 0.00 0.00 0.00 59 1011.5
20260904224704 94 88 0.0 1.0 0.00 0.00 0.00 58 1011.5
20260904224503 94 88 0.0 1.0 0.00 0.00 0.00 57 1011.6
20260904224403 94 88 0.0 1.0 0.00 0.00 0.00 57 1011.6
20260904224303 95 88 0.0 1.0 0.00 0.00 0.00 57 1011.6
20260904224204 95 88 0.0 1.0 0.00 0.00 0.00 57 1011.6
20260904224103 95 88 0.0 1.0 0.00 0.00 0.00 56 1011.5
20260904224004 95 88 0.0 1.0 0.00 0.00 0.00 56 1011.5
20260904223917 95 88 0.0 1.0 0.00 0.00 0.00 55 1011.5
20260904223904 96 88 0.0 1.0 0.00 0.00 0.00 55 1011.5
20260904223804 96 88 0.0 1.0 0.00 0.00 0.00 55 1011.5
20260904223604 96 89 1.0 3.0 0.00 0.00 0.00 54 1011.4
20260904223504 96 93 1.0 3.0 0.00 0.00 0.00 52 1011.4
20260904223403 96 95 1.0 3.0 0.00 0.00 0.00 52 1011.4
20260904223318 96 94 1.0 4.0 0.00 0.00 0.00 52 1011.4
20260904223303 96 91 1.0 4.0 0.00 0.00 0.00 52 1011.4
20260904223203 96 86 1.0 4.0 0.00 0.00 0.00 52 1011.4
20260904223003 97 82 1.0 4.0 0.00 0.00 0.00 52 1011.3
20260904222903 97 80 1.0 4.0 0.00 0.00 0.00 52 1011.3
20260904222803 97 80 1.0 4.0 0.00 0.00 0.00 51 1011.3
20260904222704 97 77 1.0 4.0 0.00 0.00 0.00 52 1011.3
20260904222616 97 74 1.0 4.0 0.00 0.00 0.00 52 1011.3
20260904222604 97 72 1.0 4.0 0.00 0.00 0.00 52 1011.3
20260904222503 97 64 1.0 4.0 0.00 0.00 0.00 52 1011.3
20260904222306 96 54 1.0 3.0 0.00 0.00 0.00 51 1011.2
20260904222204 97 52 1.0 3.0 0.00 0.00 0.00 51 1011.2
20260904222103 96 52 1.0 2.0 0.00 0.00 0.00 50 1011.2
20260904222004 97 52 0.0 2.0 0.00 0.00 0.00 51 1011.2
20260904221904 96 52 0.0 2.0 0.00 0.00 0.00 51 1011.2
20260904221803 96 52 0.0 2.0 0.00 0.00 0.00 51 1011.3
20260904221718 96 52 0.0 2.0 0.00 0.00 0.00 51 1011.3
20260904221704 96 52 0.0 2.0 0.00 0.00 0.00 52 1011.3
20260904221604 96 52 0.0 2.0 0.00 0.00 0.00 51 1011.3
20260904221519 96 52 0.0 2.0 0.00 0.00 0.00 51 1011.2
20260904221404 96 52 0.0 2.0 0.00 0.00 0.00 52 1011.2
20260904221203 96 52 0.0 1.0 0.00 0.00 0.00 53 1011.2
20260904221103 96 52 0.0 1.0 0.00 0.00 0.00 52 1011.2
20260904221003 97 52 0.0 1.0 0.00 0.00 0.00 52 1011.2
20260904220904 97 52 0.0 1.0 0.00 0.00 0.00 50 1011.2
20260904220803 97 52 0.0 2.0 0.00 0.00 0.00 50 1011.2
20260904220717 96 51 0.0 2.0 0.00 0.00 0.00 51 1011.2
20260904220403 96 50 1.0 2.0 0.00 0.00 0.00 51 1011.3
20260904220318 96 50 1.0 2.0 0.00 0.00 0.00 52 1011.3
20260904220303 96 49 1.0 2.0 0.00 0.00 0.00 52 1011.3
20260904220204 96 49 1.0 2.0 0.00 0.00 0.00 51 1011.3
20260904220003 96 49 1.0 2.0 0.00 0.00 0.00 52 1011.4
20260904215903 96 49 1.0 2.0 0.00 0.00 0.00 52 1011.4
20260904215804 96 48 1.0 2.0 0.00 0.00 0.00 53 1011.4
20260904215703 96 48 1.0 2.0 0.00 0.00 0.00 55 1011.4
20260904215603 96 48 1.0 2.0 0.00 0.00 0.00 53 1011.4
20260904215503 96 48 1.0 2.0 0.00 0.00 0.00 52 1011.4
20260904215403 96 48 1.0 2.0 0.00 0.00 0.00 53 1011.4
20260904215203 96 48 1.0 2.0 0.00 0.00 0.00 54 1011.4
20260904215103 95 48 1.0 2.0 0.00 0.00 0.00 51 1011.4
20260904215003 95 48 1.0 2.0 0.00 0.00 0.00 52 1011.4
20260904214903 95 48 1.0 2.0 0.00 0.00 0.00 54 1011.5
20260904214817 95 48 0.0 2.0 0.00 0.00 0.00 55 1011.5
20260904214804 95 48 0.0 2.0 0.00 0.00 0.00 56 1011.5
20260904214703 95 48 0.0 2.0 0.00 0.00 0.00 55 1011.4
20260904214504 95 48 0.0 2.0 0.00 0.00 0.00 56 1011.3